GFSMW_sfc_dewp_096.txt.gz
Dewpoint
45 52 53 54 55 57 58 58 58 59 59 58 58 59 59 61 61 61 60 60 58 56 55 55 55 54 54 54 55 54 51 51 50 48 48 47 49 49 50 52 52 52 53
49 51 53 54 55 56 57 58 57 58 58 58 58 58 59 59 59 58 58 58 56 56 54 53 53 54 54 54 54 53 52 51 50 48 46 46 47 48 49 48 48 50 51
48 50 53 53 55 55 57 57 57 58 58 59 58 57 58 58 57 57 57 57 56 56 55 55 54 55 55 54 55 54 53 51 52 51 52 50 48 48 49 49 50 48 50
47 50 51 53 55 55 56 56 57 57 57 58 57 56 55 54 55 55 56 57 57 57 56 57 57 56 57 56 56 55 55 54 51 51 50 54 53 50 49 49 49 50 51
47 49 50 52 54 56 57 56 56 57 58 57 57 55 54 54 54 54 54 56 56 56 56 57 58 57 57 58 58 56 56 56 56 55 54 53 53 53 52 50 51 49 49
45 48 50 51 53 56 56 57 56 56 57 57 57 55 54 54 53 52 52 53 54 55 55 55 57 57 56 58 57 57 57 57 57 56 56 54 53 52 52 51 51 51 52
45 47 48 48 52 55 54 56 56 55 57 57 57 56 55 55 53 53 52 53 52 53 53 52 53 56 57 56 56 56 57 57 57 57 56 57 55 55 54 53 51 50 51
46 46 48 48 51 55 54 54 55 55 56 57 57 56 55 54 54 54 53 54 52 51 51 52 51 56 56 57 57 59 58 58 59 57 57 57 57 57 56 54 53 51 51
44 45 48 49 50 54 55 55 55 55 54 57 57 56 56 55 54 54 53 54 54 53 53 52 53 55 55 56 58 58 58 58 58 58 58 57 58 58 58 57 56 53 49
43 45 47 50 50 53 54 56 54 54 55 55 56 56 55 55 55 54 53 53 53 53 53 54 53 54 54 57 57 57 57 57 57 57 57 57 58 57 58 58 57 55 54
41 44 46 50 49 52 53 55 54 53 54 55 56 56 55 55 54 55 54 54 53 53 53 53 53 53 54 54 55 56 56 56 56 56 56 56 57 57 58 55 54 54 53
40 43 45 50 50 51 52 53 54 53 54 55 56 56 56 56 55 55 55 55 55 54 52 52 54 53 53 55 56 56 56 56 55 55 56 56 56 57 55 54 53 53 54
41 43 44 47 50 51 51 52 53 53 53 54 55 56 56 56 56 56 55 56 55 55 55 53 54 55 55 55 55 55 55 55 55 55 55 55 55 54 54 53 54 54 53
33 40 43 44 49 51 51 51 53 53 52 54 54 55 56 56 55 56 56 56 56 56 56 55 55 55 55 54 54 54 54 55 55 55 50 44 43 43 47 53 52 51 51
27 31 39 44 46 50 52 52 52 53 52 52 53 55 56 56 57 56 56 56 56 55 55 55 55 55 55 53 53 55 55 54 44 39 37 37 37 37 36 40 38 41 41
26 26 30 38 45 47 51 52 53 53 52 52 52 54 55 55 56 56 56 56 56 56 56 56 55 52 45 39 41 47 44 41 38 35 34 34 34 34 34 33 33 33 34
27 26 33 36 43 48 50 51 53 54 53 52 52 52 54 55 55 56 56 56 56 55 52 45 42 39 38 37 37 37 36 35 34 33 32 32 32 33 32 32 32 32 32
42 43 40 38 39 41 48 51 52 53 54 53 53 53 53 54 54 55 55 51 47 43 39 37 36 35 35 35 35 34 32 31 31 30 30 30 31 32 32 31 30 29 30
47 47 46 44 44 39 39 48 50 51 53 53 53 53 53 53 53 50 44 41 39 36 35 34 34 33 33 33 32 30 29 29 29 30 29 28 29 31 32 30 30 30 28
46 46 47 46 45 42 44 44 48 51 52 53 53 53 52 48 43 40 38 36 34 32 32 31 32 32 31 32 31 29 28 27 27 27 28 29 28 27 28 29 27 25 22
46 47 47 47 47 48 46 49 50 49 48 46 44 44 43 39 37 35 34 32 31 31 30 30 31 31 32 32 31 30 28 27 26 25 24 24 25 26 27 24 23 22 22
45 46 47 48 48 47 47 44 43 43 42 40 38 37 36 35 34 33 32 31 30 29 28 28 28 29 30 31 31 31 31 30 28 25 24 24 26 24 24 23 23 25 25
43 44 44 45 44 43 42 39 38 38 38 37 35 34 33 33 32 31 31 30 30 28 28 27 26 26 27 27 28 27 28 27 25 25 25 25 26 24 25 25 25 23 21
38 39 41 40 39 39 38 37 36 35 34 33 32 32 31 31 31 31 31 30 29 28 28 28 27 26 27 29 30 28 27 27 26 26 26 25 26 25 23 21 21 19 18
36 37 37 37 36 36 35 35 34 33 31 30 30 29 28 28 28 28 29 29 30 30 28 26 25 23 22 24 23 22 22 24 23 26 23 20 19 17 16 16 14 14 13
29 29 29 31 35 36 35 35 34 32 30 28 28 28 27 26 25 23 24 28 27 27 27 27 25 25 24 21 19 18 19 19 22 20 18 17 16 14 12 12 11 11 10

GFSMW_sfc_dewp_102.txt.gz
Dewpoint
52 53 56 57 56 56 56 56 56 58 59 58 58 58 59 60 60 62 62 62 60 56 52 54 52 53 52 54 52 50 49 49 49 48 47 48 52 52 53 53 53 53 53
51 54 55 56 56 56 55 56 56 58 58 58 57 57 59 60 60 61 61 61 61 58 54 55 53 56 53 54 51 50 49 49 49 47 46 44 45 47 50 52 53 53 53
51 53 54 54 55 55 55 56 56 57 58 58 58 59 59 60 59 60 59 59 59 58 56 57 55 56 55 53 51 49 48 48 48 47 46 45 43 45 47 48 51 51 52
51 53 54 54 54 55 55 56 56 56 57 58 58 58 58 58 58 59 59 57 57 57 56 56 56 55 54 53 51 49 49 48 47 48 50 52 51 47 47 49 47 48 49
51 52 53 53 55 56 56 55 56 56 56 57 57 57 57 58 59 59 58 56 56 56 58 57 56 55 55 55 53 51 51 49 50 49 49 48 50 51 49 46 48 48 48
50 51 53 54 54 55 55 56 56 56 56 56 56 56 56 56 56 57 57 56 56 56 57 58 57 56 56 56 56 56 53 53 52 52 53 51 49 50 50 48 49 49 50
50 51 53 53 53 54 54 56 56 56 57 56 56 56 56 55 55 56 56 55 55 56 56 56 57 56 56 56 57 57 56 55 55 54 53 55 54 53 52 51 49 49 51
51 51 52 53 53 53 54 56 56 56 56 56 55 55 55 55 55 55 55 55 55 55 56 55 54 55 55 56 57 57 57 56 55 55 55 56 56 55 54 52 51 48 48
50 51 52 53 54 54 54 55 56 56 56 57 56 54 54 54 54 54 55 55 55 56 55 55 54 54 54 56 57 56 56 56 56 56 55 55 55 55 55 54 53 51 48
49 51 52 53 54 54 54 55 55 56 56 57 56 55 54 53 53 54 53 53 55 55 55 54 53 53 54 55 55 55 56 56 56 56 55 55 55 55 54 55 55 54 53
48 49 51 53 54 54 54 53 54 53 55 57 56 55 54 54 53 52 51 51 52 53 54 53 53 52 54 55 55 55 55 55 55 55 55 55 55 55 55 55 55 55 54
36 48 49 53 53 53 54 53 53 53 53 55 57 56 55 54 53 52 52 52 51 52 53 53 52 51 52 53 55 54 54 55 54 54 54 55 55 55 55 55 54 54 55
43 49 50 52 53 53 53 53 54 53 53 54 56 56 56 54 54 53 53 53 53 53 51 52 52 52 52 52 52 53 53 54 55 55 55 54 53 53 52 52 54 54 53
44 47 52 53 53 54 54 53 54 54 54 54 53 55 55 55 54 54 53 53 53 53 52 52 52 51 51 51 51 50 51 52 52 47 44 42 42 43 44 47 44 45 44
45 45 46 51 50 54 54 55 54 54 55 54 53 53 55 55 55 54 54 53 53 53 53 52 52 52 51 51 51 51 51 50 41 38 37 37 37 37 37 39 38 40 38
44 44 44 45 47 49 53 54 55 55 55 54 54 54 54 55 55 54 54 54 54 53 53 52 52 52 51 41 43 49 46 42 38 35 35 35 35 34 34 34 34 34 35
43 44 44 46 48 49 50 50 54 55 54 54 55 55 55 55 55 55 54 54 54 54 55 53 49 42 40 39 40 39 39 37 35 34 33 33 33 33 32 32 31 31 31
45 45 45 47 48 47 47 49 53 54 55 54 54 55 55 54 55 55 54 54 51 47 43 40 38 36 36 37 37 35 34 33 33 33 33 32 32 32 31 30 29 29 29
45 44 45 47 46 45 45 45 46 49 54 53 53 55 55 55 55 54 53 44 41 40 38 36 35 34 33 34 34 33 32 31 30 31 31 32 32 33 32 28 28 27 27
43 43 43 44 44 43 43 43 44 44 45 48 54 55 55 55 53 46 42 39 38 35 34 33 33 33 32 33 33 32 30 28 28 29 29 29 28 28 27 27 26 24 23
40 40 41 42 41 41 42 41 41 41 42 44 47 47 47 45 42 39 37 35 33 32 31 31 32 32 32 32 32 31 28 27 27 26 26 28 30 30 28 27 25 23 23
37 38 39 40 39 38 40 39 38 39 39 40 40 41 42 39 37 35 34 33 32 31 31 30 30 31 31 31 31 30 29 29 26 25 27 28 29 28 26 24 24 22 19
35 35 38 38 37 37 37 37 37 37 37 36 36 36 35 35 34 33 32 31 32 30 29 28 27 27 29 29 30 30 30 29 28 28 29 28 26 25 24 22 19 17 16
31 31 33 36 35 35 34 34 34 35 34 33 33 33 32 32 32 31 31 30 29 28 27 26 25 26 26 27 28 29 29 30 28 25 24 22 22 20 18 15 13 14 13
29 29 30 31 34 33 33 32 32 31 29 29 28 27 27 27 27 27 27 27 28 27 25 25 25 24 24 26 28 28 26 24 24 23 21 19 17 15 11 11 11 12 11
28 28 29 30 31 31 31 31 31 29 28 26 26 26 25 26 26 26 26 28 27 27 27 27 26 28 29 30 29 27 26 24 22 17 14 13 12 11 10 9 10 10 10

GFSMW_sfc_dewp_105.txt.gz
Dewpoint
53 54 56 56 56 56 56 56 56 56 57 59 58 58 59 60 61 62 61 61 60 58 55 51 50 48 48 51 50 49 49 49 50 50 49 50 52 52 53 54 54 54 54
52 54 55 55 55 55 55 55 55 57 57 57 56 58 59 60 59 61 61 61 58 55 54 50 48 48 51 53 50 49 49 49 50 48 47 46 46 50 52 53 53 53 54
51 53 55 55 55 55 55 55 56 57 57 57 57 58 58 60 59 59 61 59 57 55 54 50 49 49 53 52 50 49 48 48 48 48 47 44 44 45 47 50 53 52 53
50 53 54 54 54 55 55 55 57 55 56 57 57 57 56 57 59 59 60 60 58 57 57 52 52 52 54 53 51 50 49 49 47 47 51 52 49 46 45 48 49 52 52
49 52 54 54 54 54 55 56 56 55 55 57 57 56 58 58 59 58 57 59 59 58 59 57 56 56 55 55 52 50 49 49 48 49 48 49 51 51 48 45 48 48 50
49 51 53 54 54 54 54 55 56 56 56 56 57 57 57 57 58 57 56 57 58 58 58 57 57 56 55 54 54 52 50 50 50 50 51 50 49 49 50 49 48 48 49
49 51 53 53 54 54 54 55 55 54 56 55 57 57 57 57 57 57 56 55 56 57 57 57 57 56 55 56 56 55 55 53 52 51 52 53 52 52 51 50 49 49 50
44 51 52 53 53 54 54 55 54 54 55 55 56 56 56 56 57 57 56 56 56 57 58 57 57 57 57 56 57 57 56 56 55 54 54 53 55 55 54 52 51 48 48
51 51 52 53 53 53 54 55 55 55 55 55 55 55 55 56 56 56 56 56 56 57 57 58 57 57 57 57 57 56 56 56 55 55 55 55 55 56 55 55 53 51 46
49 51 52 53 53 53 54 55 55 55 56 56 55 54 55 55 55 56 55 55 56 56 56 56 56 56 57 57 57 56 56 56 56 56 55 55 55 55 55 54 54 53 52
45 49 52 53 54 54 53 54 55 55 55 56 55 54 54 54 54 54 55 55 55 55 55 55 55 55 55 56 56 56 55 55 55 55 55 54 55 55 54 54 54 54 54
45 51 52 54 54 54 54 53 54 55 56 56 56 54 54 54 53 54 54 54 55 55 55 55 54 53 53 53 53 53 53 54 54 54 54 54 55 54 55 55 54 54 54
45 50 53 54 54 55 54 54 53 53 54 56 56 55 54 54 53 52 52 52 54 54 55 55 54 53 52 53 53 53 54 54 54 54 54 54 54 54 54 53 53 53 52
44 44 50 51 54 55 54 54 54 53 53 54 55 55 55 54 53 53 52 52 52 52 52 53 52 52 52 52 52 53 52 52 54 51 48 45 46 47 47 48 46 46 45
43 44 45 50 51 52 55 55 54 54 54 53 53 54 55 55 54 53 53 52 53 52 51 52 52 52 51 51 51 51 50 50 43 41 39 38 38 38 39 42 39 41 40
45 44 44 47 49 49 50 51 55 55 55 54 53 54 55 55 54 54 53 52 53 53 52 52 52 51 51 45 44 48 49 46 41 37 36 36 35 35 34 34 33 34 36
45 44 44 46 46 46 47 48 49 54 55 55 54 54 54 54 54 54 54 53 52 53 52 51 51 49 46 41 43 42 43 41 38 35 34 33 33 32 31 31 31 30 30
44 43 45 46 45 44 44 46 47 51 55 55 55 55 54 54 54 54 54 54 54 52 50 45 42 39 39 39 40 38 37 35 34 34 33 32 31 31 30 29 29 29 29
43 43 44 45 43 42 43 43 45 46 48 54 54 55 55 55 54 54 53 51 47 44 41 39 37 36 35 36 36 36 33 32 32 32 32 32 31 32 31 28 27 26 26
40 39 41 42 40 40 41 43 42 43 43 45 49 54 55 55 54 54 46 41 41 37 35 34 34 34 33 34 35 34 32 29 28 29 29 30 30 30 29 27 26 23 23
37 38 39 38 37 38 39 40 40 39 41 42 44 45 52 54 51 45 43 38 35 34 32 31 32 32 32 33 33 32 29 27 27 27 28 29 29 29 28 27 25 23 23
33 34 36 36 36 36 37 37 37 38 38 38 38 39 40 42 43 40 36 35 33 31 30 30 30 30 31 31 31 30 29 28 26 26 27 27 27 27 25 23 23 22 20
32 32 34 35 35 34 34 34 35 36 36 35 35 35 35 35 36 36 35 33 33 32 30 28 27 28 29 30 31 30 29 28 27 27 27 27 25 23 22 21 20 17 16
30 30 31 32 33 33 33 33 33 33 32 32 32 33 32 32 32 32 32 31 30 29 27 27 26 26 27 27 28 28 29 28 25 23 21 21 20 18 17 17 15 14 13
28 29 30 31 31 32 31 32 31 30 29 28 28 27 28 27 27 28 28 28 28 28 26 26 26 25 25 27 27 26 24 23 22 21 19 18 16 13 12 12 11 11 10
27 28 28 29 29 28 28 30 30 28 28 27 26 27 27 27 26 26 27 29 29 29 29 29 28 28 29 29 28 27 26 24 21 17 14 13 12 11 10 10 9 9 9

GFSMW_sfc_dewp_111.txt.gz
Dewpoint
29 37 53 56 57 59 60 61 61 62 61 61 60 60 59 61 61 62 62 62 61 62 62 62 60 59 58 56 57 55 55 54 55 54 54 54 55 56 55 56 55 55 56
28 34 50 56 58 58 59 60 60 60 60 59 60 60 61 61 62 62 62 62 61 61 61 61 59 58 56 55 55 55 54 54 55 52 52 50 52 54 55 55 55 56 55
32 34 40 54 57 58 58 58 59 59 60 60 59 59 61 61 61 61 62 61 61 61 61 60 59 58 55 53 54 55 54 52 54 55 51 50 48 51 53 55 54 55 55
41 36 36 50 56 57 57 58 59 59 58 58 58 57 57 57 59 60 61 61 60 60 59 58 58 58 55 53 53 55 55 55 53 54 51 53 52 49 50 52 53 54 54
45 40 37 46 54 57 56 57 59 58 57 58 58 57 58 59 60 60 60 60 60 59 57 57 56 56 55 54 52 54 55 55 53 53 52 51 51 52 48 46 50 52 53
48 50 47 51 54 57 55 58 58 56 56 58 58 58 57 57 58 59 59 58 58 56 56 55 54 54 55 54 54 54 55 55 54 54 54 51 48 49 52 51 49 50 51
47 50 51 53 54 54 54 56 56 55 56 58 58 57 56 56 58 58 58 56 56 54 54 54 54 55 54 53 53 54 55 55 54 55 54 55 54 54 54 54 51 49 51
49 51 51 53 54 53 54 55 54 55 56 57 57 57 57 57 58 58 58 56 56 54 55 54 55 55 54 53 54 54 55 56 55 54 55 55 55 56 55 53 53 52 52
51 51 52 53 53 53 54 54 55 55 55 56 56 57 58 58 58 57 58 58 57 56 56 56 56 56 55 54 54 54 55 54 55 55 56 56 56 57 57 56 56 53 50
50 52 53 53 53 53 54 55 55 54 55 55 56 56 57 58 58 58 57 58 58 56 55 55 55 56 56 55 55 55 55 55 56 56 55 55 56 57 57 57 56 56 53
49 50 53 54 54 54 54 54 54 54 54 54 55 55 56 57 57 57 57 57 58 57 56 54 54 54 54 55 56 55 56 55 56 56 55 55 56 57 56 57 55 55 54
46 48 50 54 54 54 54 54 54 55 55 55 54 55 55 56 57 56 57 57 57 58 58 56 55 54 53 53 54 55 55 54 54 55 55 54 55 55 56 55 55 55 54
42 44 46 48 50 54 54 54 55 55 55 55 55 55 55 55 55 56 56 57 56 57 57 57 56 55 55 55 54 54 55 54 54 55 55 54 55 54 54 54 54 55 54
43 43 45 45 46 48 54 54 55 55 55 56 56 55 55 55 55 55 55 56 56 56 56 56 56 56 56 55 55 54 55 55 55 55 55 54 54 54 54 54 54 52 52
45 45 47 46 45 45 46 49 53 55 55 56 55 55 55 55 55 55 55 55 56 55 55 55 55 55 56 56 56 56 55 55 54 49 46 44 43 41 44 48 48 48 47
45 45 47 45 43 43 43 44 46 48 53 54 55 55 55 55 55 55 54 54 55 55 55 55 54 54 53 46 45 52 54 52 47 41 39 38 37 35 35 34 34 38 45
42 41 42 42 41 41 42 43 45 47 49 54 54 55 55 55 55 55 54 53 54 54 54 54 54 53 53 44 45 45 52 49 44 39 36 34 34 34 32 31 30 29 30
39 39 40 38 38 39 40 42 43 44 46 46 51 54 55 55 55 55 54 54 54 53 53 52 52 52 51 42 42 41 47 44 41 38 36 34 33 32 30 28 27 26 26
37 38 38 37 36 36 38 40 39 40 41 41 42 44 47 54 55 55 54 55 54 54 53 52 51 50 45 39 39 40 38 35 34 34 33 32 31 31 30 27 25 25 25
35 36 36 35 34 34 36 37 36 37 37 38 40 41 43 45 53 55 55 54 53 51 45 42 44 41 38 37 38 37 34 32 31 32 32 32 30 29 27 25 23 21 20
34 34 35 34 33 33 34 34 34 34 36 36 37 37 38 40 43 53 51 49 42 38 36 35 36 38 38 37 37 36 35 32 30 30 29 30 29 28 27 25 23 21 21
31 31 33 32 32 32 32 32 31 31 33 33 34 34 34 36 38 41 40 39 37 34 32 31 31 32 33 34 35 34 33 32 29 28 28 28 28 27 26 24 24 23 20
30 30 30 30 30 30 31 30 30 30 30 30 30 30 31 32 33 35 35 34 34 33 31 30 28 29 31 32 32 31 30 29 27 27 27 27 26 24 23 23 22 19 18
29 29 29 28 27 27 27 28 29 29 28 28 28 29 29 29 30 31 32 33 32 31 29 28 28 28 28 28 28 28 27 27 25 22 20 19 19 19 19 18 18 16 15
27 27 26 27 26 26 26 26 27 28 27 28 28 28 28 28 28 29 30 30 31 31 28 28 28 26 25 26 25 21 20 19 19 19 18 17 16 15 14 13 12 12 10
25 25 25 25 25 23 24 25 26 27 27 27 27 27 27 28 28 27 28 31 30 30 30 29 27 27 26 26 26 25 24 23 22 18 16 15 14 13 11 10 9 9 7

GFSMW_sfc_dewp_114.txt.gz
Dewpoint
30 30 31 39 51 53 54 58 61 63 63 63 63 63 63 63 63 63 63 62 63 62 63 62 62 62 61 61 60 60 58 57 57 54 55 54 55 55 51 52 51 52 53
25 26 30 43 54 54 56 58 59 62 62 62 62 62 61 62 61 62 63 63 62 62 62 62 62 61 60 60 59 59 58 57 57 54 53 52 54 54 53 51 51 54 51
23 30 33 39 50 55 58 57 59 61 63 63 61 61 61 61 62 62 63 62 62 62 61 62 61 60 60 58 57 59 58 56 57 57 51 49 47 51 53 53 51 53 52
37 38 37 37 45 55 58 58 59 60 61 62 61 60 58 56 59 60 61 62 62 62 62 61 60 60 59 58 56 57 56 57 55 54 51 52 49 48 49 51 52 52 52
44 45 43 40 41 55 58 59 60 60 61 62 60 58 56 57 59 60 61 62 62 62 62 61 60 59 58 58 56 56 56 56 55 54 53 54 53 52 46 46 49 51 52
45 46 48 45 46 57 58 59 59 59 60 60 60 58 58 58 59 59 60 61 61 61 60 59 60 59 58 57 57 57 56 58 57 55 54 52 49 49 47 43 48 49 51
48 48 48 49 50 55 56 58 58 58 58 59 58 58 59 58 57 57 58 59 59 57 57 58 58 58 57 56 57 57 57 58 57 57 55 53 51 49 47 46 45 46 49
50 50 51 53 53 54 55 57 57 56 57 59 58 59 58 57 57 58 57 59 58 57 56 56 56 57 56 56 56 56 57 57 58 58 56 53 52 52 50 48 52 51 52
51 51 52 54 54 54 54 56 56 56 57 58 58 58 57 57 56 58 59 58 58 56 54 55 55 56 55 56 56 56 57 58 58 59 59 56 55 57 56 55 54 52 49
50 52 53 53 54 53 54 56 56 56 56 57 57 56 56 57 58 60 59 58 57 56 54 55 56 55 55 55 56 56 57 58 58 57 57 56 57 57 58 58 56 54 53
49 51 52 54 54 54 54 55 55 56 56 55 56 56 56 56 58 59 59 58 58 56 55 56 56 55 55 55 55 55 55 55 56 56 55 55 57 57 57 58 58 56 55
47 48 50 50 50 54 54 54 55 56 56 56 55 55 56 57 58 58 58 58 57 56 55 56 55 55 54 54 54 54 54 54 55 55 54 54 55 56 58 57 56 56 56
43 44 44 46 47 48 53 54 54 55 56 55 54 55 56 56 56 58 58 58 58 57 55 54 54 54 55 55 55 54 54 53 54 54 53 54 55 55 56 56 56 56 55
42 44 45 45 45 46 47 48 54 55 55 55 55 55 55 56 56 57 57 58 57 57 57 55 54 54 53 54 54 55 55 55 54 55 54 54 55 54 54 54 54 54 54
45 44 45 45 44 44 45 45 48 50 54 55 55 55 56 56 56 57 57 57 58 57 57 57 56 55 54 54 53 53 53 54 54 53 53 51 48 45 47 52 53 53 53
42 43 43 42 42 42 43 44 45 47 50 53 55 55 55 54 56 56 56 57 57 57 57 56 56 55 55 47 46 52 53 54 53 46 42 40 39 36 36 35 35 37 48
41 41 40 39 40 41 42 44 44 46 47 48 54 56 54 54 54 55 55 55 56 56 56 56 56 56 55 44 45 45 54 54 49 42 39 37 36 35 33 32 31 30 30
39 39 38 38 38 38 41 42 42 42 42 42 44 45 51 55 55 55 54 55 55 56 56 56 56 55 54 43 44 43 50 46 43 40 38 36 35 36 34 31 29 28 27
38 38 37 36 36 36 38 39 38 40 38 38 40 41 43 46 50 55 55 55 55 55 55 55 55 55 55 42 42 44 43 40 38 38 37 36 33 33 33 29 27 26 26
36 36 36 34 33 34 36 35 36 36 36 36 38 39 39 41 44 46 55 55 55 55 54 52 51 47 50 39 40 44 40 37 35 34 33 33 32 31 29 27 24 21 21
33 34 34 32 32 33 34 33 33 33 33 35 35 36 36 37 40 42 48 53 50 44 40 36 36 36 38 38 38 39 40 36 33 31 30 30 30 29 27 25 23 21 21
32 32 32 31 30 30 31 30 31 31 32 32 32 33 34 35 36 39 39 40 40 36 34 33 32 33 34 34 34 34 34 34 31 29 29 29 28 27 26 24 24 22 22
31 31 30 29 28 28 28 28 30 30 30 31 31 31 32 33 33 35 35 35 35 33 32 31 30 30 31 31 32 31 31 30 27 28 28 28 27 26 24 24 23 22 21
29 28 28 27 27 26 26 27 28 30 29 29 29 30 30 31 31 32 33 33 32 31 30 29 28 27 27 28 28 28 28 28 26 23 21 21 21 20 20 20 21 21 20
27 27 27 26 24 25 24 26 27 29 28 29 29 29 30 30 30 30 31 31 32 31 29 28 27 26 22 22 23 21 20 20 20 19 19 18 18 17 17 16 16 16 15
26 26 26 25 24 23 23 25 26 28 28 27 27 28 28 28 28 27 27 30 29 29 28 27 26 25 26 26 25 25 24 24 23 19 18 18 18 16 15 14 14 15 15

GFSMW_sfc_dewp_117.txt.gz
Dewpoint
30 31 34 34 34 42 47 50 54 62 64 64 64 64 62 63 63 63 64 65 66 64 65 65 64 63 62 62 61 61 59 58 57 57 57 58 57 57 50 50 50 51 52
29 30 32 35 40 41 51 52 55 59 63 64 64 63 63 63 63 62 63 64 64 64 64 64 63 63 62 62 60 60 58 58 58 55 55 53 54 54 49 50 51 55 50
26 25 28 32 37 46 52 53 55 58 62 63 63 62 62 63 61 61 62 63 63 63 63 63 63 62 62 61 60 60 57 56 57 58 54 51 49 52 51 51 50 54 51
20 22 26 32 38 45 52 54 55 57 63 64 62 62 60 59 60 60 61 62 63 62 62 62 62 62 61 61 60 60 59 58 55 57 55 55 51 50 49 50 50 51 51
33 35 35 36 36 43 53 57 56 57 63 63 62 61 60 59 58 58 60 61 62 63 62 62 61 61 61 61 59 60 59 58 57 56 55 54 52 54 50 48 49 49 50
39 40 41 46 42 54 57 59 57 57 61 62 62 61 61 58 57 57 58 61 62 62 62 62 61 60 60 60 59 59 59 58 57 57 56 53 52 51 51 49 50 49 50
43 43 44 46 44 52 57 58 58 57 61 62 62 61 60 59 58 58 57 59 61 62 62 62 61 60 59 59 59 59 59 58 57 55 55 55 54 52 51 49 49 48 49
46 46 49 50 51 54 56 56 57 59 59 61 61 60 59 58 57 57 56 57 60 60 60 61 60 60 59 59 58 59 59 59 59 56 57 55 54 53 51 48 50 49 50
47 49 51 53 54 54 53 55 57 58 58 60 61 59 59 57 57 57 58 58 59 60 60 58 58 59 58 58 58 58 58 58 59 58 58 56 55 57 56 54 55 51 50
49 51 52 53 53 53 54 56 57 57 57 59 59 57 58 57 57 59 59 59 60 59 57 56 56 56 57 57 57 57 58 58 58 59 57 56 57 57 59 58 56 57 55
48 49 51 52 53 55 54 55 56 56 57 58 58 57 56 57 57 59 59 59 59 58 56 55 55 55 55 56 56 56 57 57 58 58 57 56 57 57 57 57 56 57 55
46 47 49 50 50 51 54 54 55 57 57 57 57 57 55 56 57 58 59 59 58 57 55 55 55 55 55 55 55 56 57 57 57 58 58 57 56 57 57 57 56 56 55
43 44 45 46 48 48 48 49 55 55 57 57 56 56 56 56 57 57 58 59 57 56 55 56 55 55 54 55 55 56 56 57 57 58 57 56 56 55 57 57 56 56 55
43 44 44 45 45 46 46 47 48 50 56 56 55 55 56 56 56 58 58 58 57 56 55 55 55 55 54 55 55 55 55 56 55 56 55 55 55 54 56 55 56 56 56
42 42 44 45 44 44 45 46 46 47 49 52 54 55 56 57 57 57 57 58 58 57 55 55 54 54 55 55 54 54 54 54 54 53 53 52 51 51 53 55 55 55 52
41 41 41 41 43 43 43 44 45 46 46 46 50 55 55 55 56 56 58 58 57 58 57 55 54 53 53 47 45 51 54 54 53 52 46 44 42 39 38 37 36 41 52
40 39 39 39 39 42 43 43 43 44 43 43 44 46 54 55 56 55 55 56 57 57 57 57 56 55 54 45 45 44 53 53 53 50 44 40 38 38 36 34 33 32 32
39 38 37 37 37 38 41 42 41 41 41 40 40 41 43 47 53 55 55 55 57 57 56 57 56 56 55 43 44 43 53 53 49 45 45 41 36 36 35 32 29 28 28
38 37 36 35 35 36 37 38 38 38 38 38 39 39 40 41 44 50 55 55 55 56 56 56 56 56 55 42 41 44 45 41 38 38 38 37 35 35 34 30 27 26 27
35 35 35 34 34 34 35 35 35 35 35 36 37 37 39 38 40 42 45 53 56 55 56 53 50 44 47 39 40 44 41 36 34 34 33 34 33 33 31 28 26 24 23
34 34 33 32 31 32 33 32 32 32 33 35 35 35 36 37 38 40 43 46 49 44 40 37 37 37 39 38 39 40 38 35 32 31 30 31 31 30 29 27 24 21 21
32 32 31 30 29 29 30 29 30 30 32 32 34 34 34 35 34 37 39 40 40 36 34 33 32 33 34 35 36 36 35 34 30 29 29 30 28 27 26 24 24 23 21
29 29 29 29 29 28 28 28 30 30 31 31 31 32 32 33 33 33 35 35 35 34 33 32 29 29 31 32 32 32 31 30 28 28 28 28 27 26 25 24 23 23 22
28 28 28 26 27 26 26 27 29 30 30 30 30 30 31 30 31 32 32 32 32 32 31 29 27 27 27 28 29 29 29 28 26 24 23 22 22 21 22 23 23 23 23
27 27 27 26 25 25 26 27 28 30 29 29 30 30 30 29 28 28 30 30 30 31 29 28 26 23 22 22 23 22 21 21 21 21 20 20 19 18 18 19 20 21 20
27 26 26 25 24 24 25 26 28 29 29 28 28 29 28 28 27 26 26 29 28 28 28 27 25 26 26 26 25 25 25 24 24 20 19 19 20 18 19 19 19 18 18

GFSMW_sfc_dewp_123.txt.gz
Dewpoint
29 27 28 28 28 30 42 60 63 65 67 67 66 65 64 64 64 66 65 64 66 65 64 64 63 63 63 61 60 60 59 59 60 59 58 58 53 52 54 55 55 55 55
28 29 33 34 35 37 47 55 61 64 66 67 66 65 65 64 64 66 65 65 66 65 64 63 62 63 63 61 60 59 59 57 59 57 57 54 54 54 52 53 53 54 54
16 25 31 35 39 40 48 53 58 64 64 65 65 64 63 62 62 63 63 64 64 64 63 63 62 62 63 61 60 60 59 57 58 59 55 52 51 51 53 52 53 53 54
11 18 27 32 37 41 50 49 54 61 63 65 64 63 62 61 61 62 63 63 63 64 63 62 62 62 62 62 61 61 59 58 57 58 59 55 52 49 50 50 51 53 53
10 14 24 30 32 40 51 51 52 59 62 64 64 62 62 61 62 62 62 62 62 62 63 63 62 62 62 62 61 61 59 59 57 57 58 57 54 50 49 46 49 52 52
10 16 30 36 51 50 53 53 53 58 63 63 63 62 61 61 61 61 60 61 62 61 61 62 62 62 62 61 61 61 60 59 57 57 58 56 53 49 49 48 48 48 51
35 43 48 51 57 57 57 57 57 61 61 62 62 62 61 61 60 60 60 59 60 61 61 61 61 61 62 61 61 60 60 59 58 57 58 57 55 51 51 49 47 49 50
51 52 53 53 54 57 56 56 56 57 61 61 62 62 61 62 61 61 60 60 60 61 62 61 60 60 60 61 61 60 60 60 59 57 57 57 57 55 52 50 48 48 49
51 52 52 52 52 54 55 55 55 56 59 61 62 62 62 61 61 60 60 61 61 61 62 61 61 59 59 60 60 60 60 60 59 59 58 58 57 56 55 52 52 48 47
51 51 52 52 53 53 55 55 56 57 57 59 60 61 60 60 59 59 58 59 60 60 60 61 61 60 60 60 60 59 60 60 60 59 58 58 58 58 56 54 53 51 50
50 50 51 50 50 51 52 53 55 57 57 57 59 60 59 59 59 58 59 60 59 59 58 58 57 58 59 59 59 59 59 59 59 59 59 58 58 57 58 57 53 52 52
49 48 48 48 48 48 49 50 51 52 55 58 58 59 60 59 58 58 59 59 59 58 57 56 56 55 56 57 58 58 58 58 58 58 59 58 58 57 57 56 54 53 54
45 46 46 46 46 47 47 47 48 49 52 54 58 58 58 58 58 57 59 59 57 56 56 56 55 55 55 55 56 57 57 57 58 58 58 58 57 57 56 56 54 54 54
46 44 44 44 45 45 45 46 46 47 48 50 54 55 56 57 57 58 59 58 57 56 55 55 55 55 55 55 55 56 56 57 57 58 58 58 57 55 55 56 54 53 53
44 44 43 43 44 44 43 43 43 44 45 46 46 47 50 53 57 57 59 57 57 55 55 55 55 55 55 55 55 55 56 56 55 56 57 56 55 51 53 56 53 52 51
40 39 40 43 43 43 42 41 41 41 43 43 43 44 45 48 51 56 58 58 57 55 55 55 55 54 54 47 46 51 54 54 54 51 50 54 50 47 45 45 44 46 51
35 35 35 37 40 42 42 40 40 39 39 39 40 42 42 44 44 47 56 57 57 56 55 55 54 53 53 44 44 45 52 52 51 48 47 43 43 42 39 36 35 34 34
35 34 34 33 34 37 40 39 37 37 37 37 38 39 40 41 42 43 45 50 56 56 55 54 54 53 53 42 43 42 51 50 48 46 46 43 39 38 37 34 32 31 32
33 32 31 31 31 32 34 33 34 35 35 35 36 37 37 39 39 39 40 43 47 54 55 55 54 53 52 42 41 45 48 41 36 38 41 40 37 36 38 34 31 30 30
30 29 29 28 28 29 31 31 31 32 33 34 34 35 35 37 37 37 39 41 43 47 50 44 41 40 46 39 41 45 41 35 34 33 34 35 34 34 34 34 31 27 25
30 29 28 27 27 28 30 29 30 31 32 33 33 32 32 34 35 36 37 38 41 41 37 35 34 35 36 38 39 40 39 35 33 32 31 32 32 32 32 30 28 25 25
27 27 26 26 26 27 29 28 29 30 31 31 31 30 30 30 32 34 35 35 36 34 33 32 31 32 33 35 36 36 35 34 31 29 29 30 30 30 29 27 26 25 24
26 26 25 25 26 26 27 28 30 29 30 29 29 29 28 28 29 30 31 33 34 33 31 30 30 29 30 31 32 32 31 30 28 29 29 29 28 28 26 26 25 24 23
25 25 24 24 25 25 27 28 30 29 28 28 28 27 27 26 27 27 28 28 29 32 31 29 27 26 27 28 29 29 29 29 27 26 25 24 25 24 25 23 23 23 21
24 25 24 23 23 25 26 29 30 29 28 28 28 27 26 25 25 26 27 27 28 29 28 27 27 25 24 25 26 25 24 24 24 23 22 22 21 20 20 20 21 21 21
23 22 22 23 23 25 26 29 30 29 28 26 26 27 26 25 25 24 25 29 28 29 29 28 27 27 28 28 27 27 26 25 24 21 19 19 19 19 19 19 19 20 20

GFSMW_sfc_dewp_129.txt.gz
Dewpoint
5 8 17 27 28 29 36 56 63 65 66 66 65 65 65 65 65 66 66 66 65 64 63 63 62 62 62 61 60 57 58 57 59 60 58 58 58 59 60 60 59 58 58
4 9 15 18 29 30 33 43 59 63 66 66 65 65 65 65 65 66 66 66 65 64 64 62 62 63 62 60 59 58 56 58 60 57 57 54 55 57 58 59 58 57 58
6 4 6 12 21 27 30 42 54 61 65 66 65 64 63 63 64 65 65 65 65 64 64 63 62 63 62 61 60 60 58 57 59 58 56 54 52 53 56 57 57 56 56
7 5 7 9 14 21 31 33 51 60 64 66 65 64 63 63 64 64 65 65 65 65 64 64 63 63 63 62 61 60 60 59 58 58 58 55 53 51 51 55 56 57 56
5 5 8 8 12 20 35 35 45 59 63 65 65 64 63 63 63 65 65 64 65 65 65 64 63 63 63 62 61 60 60 59 58 58 57 55 55 53 51 51 54 56 56
6 6 8 9 17 47 46 52 48 59 63 65 65 64 63 63 63 63 63 64 64 64 64 64 63 63 63 62 61 61 60 59 59 58 57 56 55 52 50 49 52 53 55
11 14 11 11 46 51 54 56 60 62 65 65 65 64 63 63 63 63 62 63 63 63 63 63 63 63 63 63 62 61 60 60 59 58 58 58 57 56 53 53 52 53 53
50 51 52 53 54 54 56 58 60 61 64 65 64 64 63 63 62 62 62 62 62 62 63 63 63 63 62 62 62 62 61 60 60 59 59 58 58 57 55 54 53 52 51
49 51 51 52 53 54 55 56 59 60 61 61 61 61 62 62 62 62 62 62 62 62 62 62 62 62 62 62 62 61 61 60 60 60 58 58 59 59 57 56 55 52 50
49 50 50 51 51 52 53 54 56 57 59 60 61 61 61 61 61 61 60 60 61 60 61 61 61 61 61 61 61 61 61 60 60 60 59 58 59 59 58 57 56 55 52
49 50 49 49 49 50 50 50 51 53 56 58 59 60 60 61 60 61 60 60 60 61 61 60 60 60 59 59 60 60 60 60 60 60 59 58 58 58 58 57 56 55 54
47 47 46 45 45 45 46 47 48 49 51 56 57 58 60 58 59 59 60 60 60 61 60 60 59 58 58 58 59 58 59 58 58 59 59 59 58 58 58 57 56 55 55
45 44 43 43 42 42 42 43 44 45 47 49 51 52 53 59 58 58 59 59 59 60 59 59 59 58 58 58 58 58 58 58 58 58 58 59 59 58 58 58 56 56 55
42 43 41 41 41 41 40 40 41 42 43 44 45 46 49 51 57 58 59 58 58 58 58 57 57 56 56 56 56 56 56 56 56 57 57 58 58 58 58 57 57 56 55
38 37 39 38 37 37 38 38 39 40 40 41 41 42 44 47 49 52 57 58 57 57 57 56 55 55 54 54 54 54 54 54 54 54 55 55 54 51 54 58 57 56 54
36 36 35 36 35 34 35 36 37 38 38 38 38 39 40 42 44 47 50 56 57 56 54 54 54 53 52 46 45 51 54 54 53 53 53 54 50 49 45 45 48 53 54
35 34 33 31 31 32 33 34 35 36 36 36 36 36 37 39 40 42 44 47 50 55 54 54 53 53 52 44 44 43 53 53 52 52 49 47 45 45 42 39 42 42 44
28 29 29 30 29 30 31 32 33 34 34 34 33 34 35 36 37 38 40 42 45 48 54 54 54 53 51 42 43 41 51 51 48 47 47 43 40 38 37 36 35 34 35
26 26 27 27 28 29 30 30 31 31 32 32 32 32 33 34 35 35 37 39 40 43 47 52 53 53 52 41 41 42 49 44 40 39 40 40 37 38 40 36 33 33 32
25 25 26 26 27 28 30 29 29 30 30 30 31 30 31 32 32 33 35 37 39 41 39 38 37 36 43 37 39 44 44 38 34 34 34 34 35 36 37 36 35 33 32
25 25 25 25 26 28 29 29 28 29 29 29 29 29 29 30 30 29 31 35 36 35 34 33 32 32 33 36 38 40 42 38 34 33 32 33 33 34 34 35 35 32 30
24 24 24 24 26 28 29 28 28 28 28 28 27 28 28 29 29 28 28 32 34 33 32 32 32 31 31 33 35 36 36 36 33 31 31 32 33 32 31 31 31 30 29
23 24 23 24 26 27 28 27 29 27 28 27 26 26 27 28 29 28 28 29 31 32 32 31 30 29 30 31 32 32 32 32 31 31 31 31 30 29 28 29 28 27 26
22 22 22 23 24 26 27 29 28 27 26 26 25 25 26 26 27 27 27 27 27 28 28 28 28 27 27 27 27 27 27 27 25 24 24 24 24 23 23 23 24 24 24
21 21 22 22 23 25 27 28 28 28 26 26 26 25 25 25 26 27 27 27 28 28 26 26 27 26 25 27 28 27 25 25 25 24 24 23 22 21 21 21 22 22 22
21 21 21 22 22 24 26 27 27 27 27 24 24 24 24 24 24 25 26 29 28 28 28 28 27 28 28 28 28 28 28 26 26 23 21 20 21 20 20 20 20 21 21

GFSMW_sfc_dewp_132.txt.gz
Dewpoint
14 12 11 10 10 17 29 47 63 65 65 65 64 63 63 63 64 64 64 64 64 64 63 62 62 63 62 61 60 57 57 57 59 59 57 57 59 60 61 61 61 60 60
14 14 12 10 20 24 30 33 59 64 65 65 64 64 63 64 64 64 64 64 65 64 64 62 62 62 62 61 59 58 56 57 59 57 56 55 56 58 59 60 60 59 59
15 15 15 12 10 17 24 30 38 61 65 65 65 64 65 65 64 64 64 64 64 64 64 63 62 63 62 61 60 59 58 57 59 57 56 54 53 54 57 58 59 58 58
15 15 15 14 9 10 18 29 32 47 63 65 65 64 63 62 63 63 64 64 64 64 64 63 62 63 62 62 60 60 59 58 57 59 58 56 54 51 51 56 57 58 58
17 15 14 13 9 8 16 27 31 43 56 64 64 64 63 63 63 64 64 64 65 65 64 63 63 63 63 62 61 60 59 59 58 58 58 57 55 53 52 51 54 57 57
16 15 14 12 8 13 32 34 34 45 57 63 64 64 63 62 63 64 64 63 64 65 64 64 64 63 63 62 61 61 60 59 59 59 58 57 55 53 51 51 53 54 56
42 38 36 28 10 33 41 47 39 46 58 62 64 64 63 63 63 63 63 63 63 64 64 64 63 63 63 62 62 61 60 60 59 58 58 58 57 56 54 53 53 53 54
49 50 49 51 51 52 53 54 56 57 60 63 64 65 64 64 63 63 63 63 64 64 65 64 64 63 63 63 62 61 61 60 60 59 59 59 58 58 56 55 53 52 52
48 47 48 49 51 52 55 59 60 61 63 64 65 64 64 63 63 63 63 63 63 63 63 64 63 63 63 63 62 61 61 60 60 60 59 59 59 59 59 57 55 53 50
44 45 46 46 48 48 50 53 55 57 59 61 63 63 63 62 62 63 62 62 63 62 62 63 62 62 62 62 62 61 61 60 60 60 59 59 59 59 59 57 56 55 53
42 43 43 45 45 45 45 46 49 51 54 58 60 61 61 61 61 61 61 61 61 61 61 62 62 61 61 61 61 60 60 60 60 60 59 59 59 59 59 58 57 55 55
38 39 40 42 43 41 42 42 44 46 48 51 54 56 59 60 60 60 59 60 59 60 60 60 60 60 60 60 60 59 59 60 59 59 59 59 59 58 59 59 57 56 56
37 37 37 37 38 39 39 40 40 42 44 46 48 50 51 53 58 59 59 59 59 60 60 60 59 59 58 58 59 59 58 59 59 59 58 58 58 58 58 58 57 57 56
34 35 35 34 34 37 37 38 39 39 40 41 42 44 46 48 51 57 58 59 59 59 59 59 59 58 58 58 58 58 57 58 58 58 58 58 58 58 58 58 57 57 55
33 33 33 33 31 32 34 35 37 37 38 38 38 39 42 43 45 48 51 57 57 58 58 57 57 57 57 56 56 56 56 55 55 54 55 55 54 51 52 55 56 57 57
32 32 33 32 30 30 32 33 35 35 36 36 36 37 38 39 41 43 46 48 54 56 56 55 55 54 53 47 44 51 54 54 53 52 52 53 49 48 44 43 44 51 56
29 30 31 32 32 30 30 31 32 34 33 33 33 34 36 37 38 40 41 43 46 50 55 55 54 53 53 43 43 43 53 53 52 51 50 49 47 44 45 43 40 40 41
26 26 28 28 30 30 30 30 31 31 32 32 31 32 33 34 35 36 38 39 42 45 48 53 53 53 51 42 42 41 51 51 51 49 48 47 43 39 39 37 35 34 35
25 25 25 26 27 29 30 28 29 30 30 30 30 30 31 32 32 33 34 37 39 42 42 42 44 47 50 38 39 42 49 47 42 40 39 42 39 38 38 35 33 33 32
24 24 25 25 27 28 29 28 27 28 28 28 29 29 30 30 30 30 32 35 37 37 37 35 35 34 35 36 37 40 45 40 35 34 34 34 35 36 36 35 34 33 32
23 24 24 25 26 28 29 28 27 27 28 28 28 28 29 29 30 30 31 33 35 34 34 33 32 32 33 34 36 38 42 39 34 33 32 33 34 34 35 35 34 32 33
22 23 23 24 25 27 28 27 27 26 28 27 26 27 28 28 28 29 30 31 33 33 32 32 31 31 31 32 34 35 37 36 34 31 32 32 33 33 32 32 32 31 31
21 22 22 23 24 26 27 26 28 27 27 26 25 26 26 27 28 28 28 28 29 29 29 29 28 28 29 29 29 32 32 32 31 31 32 31 30 29 29 29 29 28 28
21 21 21 22 23 25 27 27 27 28 26 25 25 25 25 26 27 27 27 27 27 27 26 26 26 26 27 27 27 27 27 27 25 25 25 25 25 24 24 24 25 25 25
21 21 21 21 22 24 25 26 26 26 25 24 24 24 25 25 26 27 28 27 28 27 26 26 26 25 26 28 28 27 25 25 26 25 25 24 23 22 22 22 23 23 23
20 20 20 20 21 23 24 25 25 24 25 24 24 24 24 23 24 24 24 27 28 28 28 28 27 28 28 28 28 28 27 27 25 23 21 21 21 20 21 21 21 22 22

GFSMW_sfc_dewp_138.txt.gz
Dewpoint
30 34 38 40 43 46 43 37 35 38 37 42 57 62 63 63 63 62 64 65 66 67 66 62 64 64 62 62 63 62 62 60 61 61 61 61 62 63 64 65 64 63 62
32 36 42 43 46 46 47 44 32 32 32 33 52 61 63 64 63 64 64 65 66 66 66 65 64 64 62 63 63 62 60 61 63 58 57 57 59 61 62 63 62 63 63
37 41 42 44 46 48 49 45 36 31 32 37 45 59 62 63 63 64 64 64 65 65 65 65 64 64 63 62 63 63 62 60 61 61 57 54 52 55 58 61 61 62 62
41 40 41 43 43 46 49 50 43 32 29 35 41 57 59 59 61 62 64 64 64 65 65 65 65 66 64 63 63 63 62 61 59 60 58 57 55 53 55 57 60 61 61
37 39 40 40 39 42 46 51 39 34 32 33 41 55 59 60 60 61 63 65 65 64 64 65 65 65 64 65 65 64 64 62 60 59 59 59 57 57 53 54 56 59 60
37 39 38 38 37 39 43 47 42 31 33 33 41 58 62 60 59 62 63 63 65 64 64 64 64 65 65 64 64 64 65 63 62 60 59 58 57 55 55 53 55 56 58
37 35 37 36 36 37 41 44 46 30 32 33 41 59 61 62 62 62 63 64 64 63 64 64 64 64 65 65 65 64 64 64 63 62 60 61 60 58 56 55 54 55 57
35 35 36 36 35 36 38 41 48 33 29 32 41 56 61 59 60 61 62 64 64 64 64 64 64 64 65 65 64 63 64 66 66 64 62 62 61 60 57 56 56 56 57
34 34 35 35 34 35 37 41 42 52 32 33 43 54 60 60 60 61 63 63 65 64 65 65 64 64 64 64 65 64 64 66 66 66 66 63 63 62 59 59 58 56 56
34 35 35 34 34 34 37 37 40 44 51 55 52 56 60 62 62 63 64 65 65 65 65 64 64 64 64 64 65 64 65 65 65 64 64 64 62 62 62 62 60 59 57
34 35 35 33 34 33 34 36 38 41 45 48 54 60 62 62 63 64 65 65 66 65 65 64 64 64 64 64 63 64 64 63 63 62 62 62 62 62 62 62 61 60 59
34 34 34 33 32 32 33 34 35 38 42 44 46 49 52 56 60 64 65 65 65 65 65 64 63 63 63 63 63 63 62 62 62 62 61 61 61 61 61 61 60 60 60
33 33 33 32 31 33 34 33 34 36 39 41 43 43 48 50 50 54 58 63 62 62 62 62 62 62 62 62 62 62 62 62 62 61 61 61 61 61 61 61 60 60 59
32 32 32 31 32 32 33 34 33 35 36 38 40 41 43 46 50 52 52 55 62 62 63 63 61 62 61 61 61 62 62 62 61 61 61 61 60 60 60 60 60 59 59
29 32 31 31 31 32 32 34 33 34 35 35 37 38 41 41 46 47 49 51 53 61 62 62 62 62 61 61 60 61 61 61 61 61 60 61 59 53 56 60 59 59 58
28 30 31 31 31 31 31 32 33 34 35 34 34 35 36 37 39 42 44 46 48 52 59 60 60 60 59 48 48 56 60 61 59 59 60 59 52 52 46 45 44 50 56
26 29 30 30 31 31 32 32 31 32 33 33 33 33 34 36 36 39 40 41 44 47 48 49 55 51 44 40 45 46 59 59 59 59 59 58 56 53 55 44 41 41 39
24 24 25 26 26 29 30 31 30 30 30 30 31 32 33 33 35 35 37 39 41 43 42 42 45 44 38 37 40 41 58 58 57 57 56 56 55 53 52 48 46 47 47
23 23 23 24 25 26 27 27 29 28 29 29 30 30 32 32 33 34 35 38 38 38 37 37 36 39 37 36 38 42 53 55 55 53 48 49 51 40 41 47 43 43 41
22 22 23 23 24 25 26 26 26 28 27 28 29 30 31 32 32 33 34 36 37 36 35 34 34 33 33 34 36 38 48 46 45 43 38 35 38 36 37 45 45 43 39
21 22 22 22 23 25 26 25 25 26 26 27 28 29 30 30 31 32 32 33 35 35 35 33 34 33 32 33 34 35 43 40 40 38 36 35 34 36 37 36 39 39 35
21 21 21 22 23 24 24 23 24 26 26 26 27 28 29 29 29 30 31 31 32 33 33 33 33 33 33 31 32 32 34 36 34 32 32 32 32 32 32 32 32 32 34
21 21 21 22 23 23 23 23 24 25 26 26 26 27 27 28 29 29 29 30 31 32 32 31 31 30 32 32 31 31 30 30 29 30 30 30 29 29 29 29 29 31 33
21 21 21 21 22 23 23 24 25 25 25 25 26 26 27 28 27 28 27 27 28 30 30 29 30 29 29 30 31 32 32 30 29 29 29 28 27 28 27 28 27 27 27
20 21 21 21 21 22 23 23 24 25 24 25 25 26 26 26 27 27 26 26 27 27 28 29 28 28 27 28 29 29 29 29 28 29 28 27 26 25 25 24 25 26 26
19 19 20 21 21 22 23 24 24 24 24 23 24 25 26 27 26 27 29 24 24 24 25 26 28 29 27 27 27 27 26 26 28 29 27 26 25 25 24 24 24 24 24

GFSMW_sfc_dewp_141.txt.gz
Dewpoint
34 38 41 41 41 44 44 48 48 53 51 43 41 42 58 65 64 64 65 67 68 68 68 65 65 65 63 63 65 63 63 62 62 62 62 62 62 63 63 66 64 62 63
35 36 38 39 41 42 43 43 44 47 51 45 39 40 42 62 65 64 64 66 68 68 67 67 65 65 63 64 65 64 62 62 62 60 58 56 59 61 61 62 64 63 63
35 35 36 38 39 38 41 40 42 44 48 53 40 39 40 53 65 65 64 65 67 67 68 67 66 66 64 63 65 64 63 60 62 62 58 55 53 55 59 62 62 63 62
35 35 36 36 37 37 39 38 40 42 46 52 49 41 34 42 59 65 65 64 66 67 67 67 66 67 65 64 64 64 64 63 61 62 59 60 55 55 55 58 61 62 61
34 35 35 35 35 36 37 37 38 40 45 51 53 39 40 42 56 63 63 65 66 66 66 67 67 67 65 66 65 64 65 63 61 60 61 61 58 57 53 55 56 59 60
35 35 34 35 34 35 37 36 37 38 43 48 52 46 43 46 57 60 62 63 65 66 65 65 67 67 66 66 65 65 66 64 63 61 61 59 58 56 55 53 56 56 58
35 34 34 34 35 34 36 36 36 38 42 50 49 44 45 43 58 61 62 61 64 65 64 64 66 66 66 66 66 65 66 65 64 64 61 61 59 58 57 55 53 55 56
34 34 35 35 35 34 35 36 36 37 41 50 41 43 44 40 56 60 61 58 58 63 65 64 64 66 67 66 66 66 65 66 66 64 64 61 60 59 57 57 54 56 57
34 34 35 34 34 33 35 35 36 36 40 47 51 42 44 44 56 61 63 57 55 55 64 64 64 64 66 66 66 65 65 66 66 66 66 63 62 62 61 60 58 57 54
32 33 35 35 34 33 34 35 36 36 39 44 48 50 43 50 60 61 61 61 61 62 64 64 64 64 64 64 64 64 64 64 66 66 66 65 64 64 64 64 61 59 57
32 33 34 35 34 33 33 33 35 36 38 42 44 49 55 57 59 61 61 63 63 64 65 65 64 63 63 64 64 63 63 63 65 66 65 64 64 64 63 63 61 60 60
32 33 33 34 34 33 32 32 34 35 37 41 41 45 47 52 54 57 62 63 64 66 66 66 64 63 63 63 63 63 63 63 63 64 64 64 63 63 63 62 62 61 61
31 32 34 33 34 33 32 32 33 34 36 38 39 41 43 45 50 51 55 58 63 63 64 64 65 63 63 63 63 63 63 64 63 63 62 62 62 62 62 61 61 61 60
30 32 34 33 33 33 32 33 34 34 35 36 36 37 41 42 46 47 50 52 56 62 63 63 63 63 62 62 62 62 63 63 63 63 62 62 61 62 61 61 61 61 60
28 31 34 33 32 32 33 33 34 34 34 35 35 36 38 41 42 43 46 50 52 55 60 62 61 61 62 62 62 62 62 62 62 62 62 62 60 54 57 60 60 60 60
28 28 31 33 32 31 33 33 33 35 34 34 34 35 35 37 39 40 42 44 47 50 50 52 60 61 49 41 47 57 61 62 61 60 61 61 53 52 47 48 45 52 59
27 27 30 32 31 30 30 33 33 33 33 33 34 34 34 34 36 38 38 40 42 44 44 46 46 41 39 38 40 42 62 61 61 60 59 57 57 54 57 44 42 42 41
25 25 25 25 25 28 28 30 30 31 31 32 32 34 34 34 35 35 36 38 39 39 39 39 41 40 35 36 37 39 54 59 58 58 57 56 55 54 54 53 48 48 47
24 24 24 24 25 25 26 26 27 28 29 30 30 32 32 33 34 33 35 37 37 36 35 36 34 36 35 34 35 40 53 55 52 45 42 53 51 40 45 49 45 40 38
24 23 23 24 24 24 25 25 25 27 27 29 30 30 32 32 32 33 34 36 36 35 34 34 34 33 32 33 34 37 46 45 40 38 36 35 38 37 38 45 45 43 38
23 23 23 23 24 24 25 25 25 25 27 28 29 29 30 30 31 32 32 34 34 34 34 33 33 32 32 32 33 34 40 39 38 35 34 34 34 35 36 35 37 35 35
22 23 22 23 23 23 24 23 24 25 26 28 28 28 30 29 29 29 30 32 32 32 33 32 32 32 32 32 32 32 32 35 33 32 32 32 32 32 32 33 33 34 34
21 22 22 23 23 23 23 23 24 25 26 27 27 27 28 29 30 30 27 28 30 31 31 30 30 30 31 32 32 32 31 30 30 31 31 31 31 30 30 30 30 32 33
20 21 21 21 22 23 23 23 24 25 25 26 26 27 28 28 28 28 28 26 26 28 28 30 29 30 29 29 30 32 31 30 29 29 29 28 28 28 27 28 28 28 28
21 20 21 21 22 22 23 23 24 25 24 25 26 26 29 28 29 27 27 27 26 26 26 27 29 27 27 28 29 29 29 30 29 29 28 27 27 26 26 25 26 26 26
20 20 20 20 21 23 25 23 25 25 25 25 25 29 29 28 28 28 29 26 25 24 25 26 27 29 27 28 29 30 30 30 30 29 27 27 26 25 25 25 25 26 26

GFSMW_sfc_dewp_147.txt.gz
Dewpoint
34 34 35 35 36 36 36 36 36 36 36 36 37 37 38 41 43 45 50 52 61 66 67 65 66 63 61 62 62 62 62 61 62 61 60 60 61 62 62 62 63 63 63
34 34 34 35 35 35 35 35 35 35 34 35 36 37 38 39 41 43 46 50 53 64 65 65 65 63 61 62 62 61 61 61 62 59 57 56 56 59 61 62 62 62 63
33 34 34 34 34 34 35 34 35 34 34 35 35 36 37 39 41 43 47 50 51 58 64 65 65 64 62 61 62 61 60 60 62 60 57 53 52 55 58 61 62 61 62
33 34 33 34 34 34 35 34 35 34 33 35 35 35 36 37 39 42 44 46 50 50 61 64 64 64 62 61 62 61 61 60 60 59 58 56 56 54 55 57 59 61 61
33 33 33 33 34 34 34 33 34 34 33 35 35 35 36 38 40 41 43 46 49 52 52 62 63 63 64 61 62 62 61 61 60 60 58 57 57 57 56 54 56 58 61
33 33 32 33 34 33 33 33 34 33 34 35 35 35 37 37 39 41 43 45 49 50 47 61 62 58 64 62 62 62 61 61 61 60 59 57 55 57 56 54 56 57 59
32 32 32 33 33 32 33 33 34 33 34 34 35 36 37 39 41 43 46 48 50 50 51 59 60 53 60 63 62 62 61 61 60 61 59 59 57 58 57 56 55 55 56
32 32 34 34 32 31 32 34 34 33 34 34 35 36 38 41 42 44 46 51 51 51 55 59 58 56 55 58 63 63 62 61 61 61 60 60 59 59 57 56 56 54 54
32 32 34 34 31 31 32 34 34 34 36 35 36 36 38 40 42 45 50 51 51 48 50 58 57 53 50 54 62 63 62 61 62 61 61 60 60 60 59 57 56 55 52
32 33 34 33 31 31 32 33 34 34 36 35 37 37 37 39 41 44 46 50 56 51 56 56 58 58 54 59 57 61 62 62 62 62 60 60 60 60 59 58 57 57 55
32 32 33 33 32 31 31 32 33 33 35 36 37 37 37 40 41 43 45 48 54 52 50 48 55 55 56 57 56 53 62 62 62 62 61 60 60 60 60 59 58 58 57
32 32 33 32 32 31 30 30 32 33 33 35 35 36 37 38 40 40 43 46 49 57 52 51 50 53 51 54 54 54 55 61 62 62 62 61 61 60 60 59 59 59 59
31 32 32 30 31 31 30 30 30 32 33 33 35 35 36 36 37 40 42 44 45 48 52 57 56 55 52 50 53 55 61 62 61 62 62 62 61 61 61 60 59 59 59
30 31 30 28 29 30 30 29 30 31 32 32 33 33 34 35 36 38 40 41 42 43 46 50 56 57 54 55 57 59 61 62 62 62 63 63 63 61 61 61 60 60 59
28 29 30 28 28 28 29 28 30 29 30 31 32 33 33 33 34 35 37 39 40 41 42 47 52 48 44 40 44 48 60 61 61 60 60 61 61 56 59 61 60 59 59
27 28 28 29 29 28 27 28 30 29 29 30 31 32 31 31 32 34 35 37 37 38 40 40 40 39 38 36 37 42 59 61 61 60 61 61 53 52 49 48 50 57 59
26 27 27 28 28 27 26 27 28 28 28 30 30 31 30 31 30 32 34 35 35 35 36 36 37 37 35 35 37 37 49 61 61 61 61 61 60 54 56 47 46 42 41
25 25 24 25 25 25 25 26 26 26 27 29 30 30 30 30 29 29 31 34 34 34 33 33 33 34 33 34 35 37 48 57 58 58 59 58 56 57 54 50 46 42 41
24 24 24 24 24 23 24 24 24 25 26 28 29 31 30 28 29 28 29 30 33 33 33 32 32 31 32 33 35 37 49 44 42 40 41 53 53 48 49 48 40 37 36
23 22 23 24 23 23 23 23 24 24 26 28 29 31 31 28 27 27 28 29 31 32 32 31 31 31 30 32 34 37 43 41 37 36 35 35 37 40 44 45 42 37 34
22 22 22 23 22 23 24 23 23 23 26 29 29 31 30 29 27 26 26 26 28 29 29 30 30 30 30 31 33 34 35 34 34 33 32 33 34 35 36 38 39 37 35
21 21 21 21 22 23 24 23 24 24 26 28 28 30 29 31 27 26 25 25 25 26 27 27 27 29 31 31 32 32 32 33 32 31 32 32 33 33 34 34 34 34 34
20 21 20 20 21 22 23 24 24 26 26 27 26 28 29 29 28 27 24 24 25 25 25 25 26 26 29 31 32 32 31 30 30 30 31 31 31 31 30 31 31 32 33
20 20 19 19 19 21 23 23 25 27 26 26 26 27 28 28 29 26 25 25 25 25 25 25 25 27 28 30 32 31 30 30 29 29 29 29 29 28 28 28 28 29 29
20 19 20 18 19 21 22 22 24 27 28 26 26 28 27 28 28 28 26 26 28 28 26 26 27 27 28 30 32 32 30 30 29 29 28 27 27 26 26 26 27 27 28
18 19 20 18 19 21 22 23 25 27 28 27 26 27 28 28 28 28 28 30 29 28 30 30 29 29 31 33 32 31 31 30 30 28 27 26 26 25 25 25 25 26 26

GFSMW_sfc_dewp_150.txt.gz
Dewpoint
34 35 35 35 35 35 35 35 35 35 35 34 34 35 35 36 38 39 41 43 45 47 50 54 63 65 64 62 62 62 62 61 62 61 60 59 60 62 63 63 63 63 63
33 34 34 34 35 35 35 34 34 34 34 33 34 35 35 36 37 39 40 43 45 47 48 50 56 63 64 64 62 61 61 61 62 59 60 57 58 61 61 62 63 62 63
33 33 33 34 34 34 34 33 33 34 35 34 34 35 35 36 36 38 39 41 43 45 46 50 53 60 63 64 62 61 61 60 61 60 59 55 55 57 59 61 62 62 62
33 33 32 33 33 34 32 33 33 34 34 34 34 34 34 34 36 37 39 41 43 44 46 48 51 54 62 62 62 62 61 61 59 60 58 56 55 55 55 58 61 61 61
32 32 32 33 34 33 31 33 33 34 34 34 34 35 34 35 36 38 39 41 43 43 46 48 51 52 60 62 63 62 61 61 60 59 59 56 56 55 54 55 57 60 61
32 32 33 33 33 30 31 31 33 33 34 34 35 35 34 35 36 37 39 41 43 45 46 48 51 52 55 61 61 63 62 61 60 60 59 57 55 55 54 52 55 57 59
31 32 32 33 30 29 30 31 32 32 33 34 35 35 35 36 36 38 40 41 43 45 47 49 51 51 52 60 60 59 57 62 61 61 60 59 57 58 56 55 54 55 57
31 32 33 32 30 30 31 32 32 32 33 33 34 35 36 37 37 38 39 41 44 47 49 51 51 52 54 58 57 56 55 53 62 61 61 59 59 58 58 56 55 53 53
31 32 33 32 31 31 31 32 32 32 33 33 34 35 37 37 38 38 41 42 44 46 50 53 52 52 57 54 55 53 52 55 62 61 61 60 59 58 58 57 57 55 52
32 32 33 32 31 31 31 31 32 32 33 34 34 35 37 37 38 39 39 41 43 45 50 52 52 56 56 54 54 52 53 55 60 62 61 60 60 59 59 58 57 56 55
31 31 32 31 32 31 31 30 31 31 32 33 33 34 36 37 37 38 39 40 42 45 48 52 54 55 53 53 53 52 52 55 54 57 61 60 60 60 60 59 58 57 55
31 31 31 30 30 31 30 29 30 30 31 32 33 34 35 35 36 36 37 39 41 43 45 47 50 53 55 52 52 52 52 55 55 53 53 60 60 59 59 59 58 58 57
30 30 29 26 28 30 30 29 29 30 30 30 32 32 34 33 34 35 36 38 40 40 42 44 46 50 52 55 55 55 54 53 54 53 52 55 60 59 60 59 58 57 57
30 29 27 24 25 28 29 28 29 29 29 30 31 31 32 32 33 34 35 37 38 38 40 42 46 45 54 52 54 55 54 53 52 52 53 54 61 59 60 59 58 58 58
29 29 28 24 23 25 27 28 29 28 29 29 29 30 31 31 32 32 33 34 36 37 37 38 40 40 38 37 40 51 53 52 51 52 53 54 60 55 57 60 59 59 58
28 28 27 29 26 26 26 27 28 27 28 29 30 30 30 29 30 30 31 32 34 35 35 35 35 36 35 35 36 38 51 53 53 52 54 56 54 53 49 49 51 57 58
26 26 26 27 26 26 26 26 26 26 27 29 30 32 29 28 28 29 29 30 32 33 33 33 33 33 34 34 35 37 46 55 56 56 58 60 59 54 58 47 46 45 46
24 23 24 24 23 24 24 26 25 25 26 29 30 30 31 28 27 27 27 28 31 32 31 31 31 32 32 34 35 36 50 53 55 57 58 59 58 57 57 53 47 44 44
23 23 24 23 23 23 24 23 23 24 26 29 29 29 30 28 27 26 26 27 28 30 30 30 30 30 31 33 34 38 44 41 39 39 40 48 55 47 48 51 41 38 37
22 22 23 23 22 23 24 23 23 24 25 28 28 28 30 29 26 25 25 26 27 28 28 28 30 30 30 32 34 35 36 35 36 35 34 34 39 42 41 43 41 38 35
21 21 21 21 21 23 24 22 23 24 26 27 27 28 29 30 27 26 25 25 26 27 27 28 29 30 31 31 33 33 32 33 32 32 32 33 34 38 41 43 43 40 35
20 20 19 19 20 21 24 21 23 25 26 26 26 28 28 28 28 25 25 25 25 25 26 26 28 29 31 32 32 32 31 31 30 30 31 32 33 34 34 34 34 34 34
19 20 19 18 19 20 22 21 23 25 26 26 26 27 27 28 29 26 25 25 25 25 25 25 26 28 30 31 33 31 31 30 29 30 30 31 31 31 31 32 32 33 34
18 20 17 17 19 20 21 21 23 25 26 25 25 26 27 27 28 27 26 26 24 25 25 25 25 27 28 29 31 31 30 30 29 29 29 29 29 29 28 29 30 30 30
17 19 17 18 18 20 21 22 23 25 26 25 26 27 28 27 27 27 27 26 25 27 26 26 26 26 26 29 31 31 30 30 30 29 28 28 27 27 27 27 27 28 28
19 18 19 19 19 19 20 22 24 25 27 24 25 27 27 27 26 26 23 23 24 25 27 28 27 27 29 30 30 30 29 28 29 28 27 26 26 26 26 26 26 27 27

GFSMW_sfc_dewp_153.txt.gz
Dewpoint
34 34 35 35 34 35 33 34 34 34 35 34 34 34 35 35 37 37 38 41 42 43 44 46 48 50 51 61 64 63 62 62 62 60 60 60 62 62 62 62 62 62 63
33 34 34 34 34 32 32 33 33 33 34 34 34 34 35 36 36 37 38 40 41 43 43 44 45 48 51 52 62 63 62 62 62 59 58 57 59 61 62 62 62 62 63
32 32 33 33 33 31 32 31 33 33 34 35 34 34 35 35 36 36 37 38 40 42 43 43 45 46 48 51 55 62 62 60 61 61 58 56 55 59 60 61 62 62 62
32 32 32 33 31 31 31 31 32 33 34 34 34 34 34 34 35 36 37 38 39 42 44 43 44 45 47 50 53 61 62 62 60 61 61 58 56 55 55 59 61 62 61
31 32 32 32 32 30 30 31 31 33 33 34 34 35 34 35 36 37 37 38 40 42 43 44 44 45 47 49 51 57 61 62 61 60 60 56 55 55 54 54 57 60 61
32 33 33 32 30 29 30 30 31 31 33 33 33 33 33 34 35 36 37 38 39 40 42 44 44 46 47 48 51 52 60 61 62 61 60 58 55 55 54 52 56 57 60
31 32 32 30 29 29 30 30 30 31 32 32 32 33 33 35 35 36 37 37 37 39 41 43 45 47 48 49 51 52 58 60 60 61 61 60 57 56 56 54 54 55 58
32 31 32 31 30 30 30 30 31 31 31 32 32 33 33 34 35 36 37 37 38 39 42 43 44 46 48 50 51 52 56 60 59 56 56 60 59 58 56 55 54 53 56
31 31 31 31 30 30 30 30 30 30 31 32 32 33 33 34 35 36 37 38 38 39 40 42 44 46 48 50 51 52 56 58 57 55 55 55 60 59 58 57 56 54 52
31 31 31 30 31 30 30 31 30 30 31 32 32 33 33 34 35 36 36 37 38 39 40 41 43 46 51 52 52 54 56 56 54 53 52 53 60 60 59 58 57 55 53
31 30 29 30 30 30 30 29 29 30 30 31 31 33 34 33 33 34 36 36 37 38 39 40 42 44 47 53 54 54 54 53 51 52 53 54 58 60 59 59 58 56 55
31 30 29 28 29 28 28 28 29 30 29 30 31 32 32 33 32 33 34 35 36 38 38 38 39 42 46 50 53 53 52 52 51 51 52 53 56 59 60 59 58 57 57
30 29 28 26 27 28 28 28 28 29 29 29 31 31 31 31 31 31 33 34 35 36 37 37 38 40 41 44 51 53 52 53 53 52 52 52 55 59 60 59 58 57 57
29 28 26 22 23 26 27 27 27 28 28 28 29 30 31 31 30 30 32 32 33 34 35 36 35 36 38 37 37 40 52 51 52 53 53 51 52 53 56 59 59 58 57
28 27 27 21 20 23 25 27 28 27 27 27 29 30 31 30 30 29 30 30 31 33 34 35 33 34 35 35 34 35 39 50 52 53 54 53 52 48 50 59 59 59 57
27 26 27 27 24 25 25 26 26 26 27 27 29 29 30 28 29 28 28 29 29 30 32 33 32 32 32 34 34 35 37 40 53 53 52 52 48 48 45 45 50 56 58
24 26 26 25 25 25 25 25 25 26 26 27 29 28 29 29 28 27 26 27 28 29 30 31 32 31 32 33 34 34 37 40 50 52 51 51 51 49 52 45 45 48 47
23 24 23 23 23 24 24 25 24 24 25 25 27 27 29 29 27 26 25 26 27 28 29 30 31 31 31 33 33 34 42 42 46 53 52 51 51 53 53 53 53 55 48
23 23 23 22 22 23 24 23 23 24 24 25 26 26 28 29 27 25 25 26 26 28 28 29 30 30 31 33 33 33 36 38 37 37 38 46 52 48 46 53 47 38 37
22 22 22 21 21 22 24 22 22 23 24 26 27 27 28 28 26 25 25 26 26 27 27 28 29 31 30 32 33 32 33 32 33 33 33 34 36 40 42 50 46 43 38
20 20 20 20 20 21 23 21 22 22 24 26 26 26 28 27 26 26 25 25 25 27 26 27 28 29 31 31 33 33 30 30 31 31 32 33 34 38 41 47 46 44 37
19 19 18 18 19 20 22 21 21 22 24 26 26 26 27 26 27 27 24 23 24 25 25 26 26 28 29 31 32 33 31 31 29 29 30 32 33 34 35 36 35 36 36
19 18 17 18 19 20 21 21 22 22 24 26 25 26 25 26 27 27 25 23 23 24 23 24 24 25 27 29 31 31 32 31 29 30 31 31 32 33 32 32 33 34 34
19 17 17 18 18 20 20 21 21 25 24 24 24 25 25 24 26 25 24 23 22 23 22 22 22 23 24 27 28 29 29 30 30 30 30 29 30 30 30 31 31 31 32
18 18 18 17 18 19 20 21 23 25 24 23 24 24 24 25 25 25 22 22 23 24 23 22 23 22 22 25 28 29 29 29 29 29 28 27 27 27 28 28 28 29 29
17 17 17 17 18 18 19 21 23 24 24 22 23 24 24 24 24 24 23 21 21 22 23 24 24 24 25 26 26 27 28 28 29 27 25 25 25 25 26 26 27 27 27

GFSMW_sfc_dewp_156.txt.gz
Dewpoint
34 34 34 34 33 31 32 33 34 34 35 34 34 34 35 35 36 37 38 40 40 41 42 43 43 44 45 47 50 51 58 63 63 60 61 61 62 62 62 63 62 63 63
33 33 33 33 32 30 31 31 32 33 34 34 34 34 35 36 36 38 38 39 40 41 40 42 43 43 44 45 47 51 52 61 63 60 58 57 58 60 61 62 62 62 63
32 32 32 32 31 29 30 31 31 33 34 34 34 34 35 36 36 36 37 38 39 40 41 42 43 44 45 45 45 47 49 54 61 62 58 56 55 58 61 61 62 61 62
32 32 31 30 30 29 29 30 31 31 32 34 34 34 33 33 35 36 38 38 39 40 41 43 43 44 44 45 46 46 49 51 57 61 62 59 57 56 55 60 60 61 61
32 32 31 30 29 29 29 30 31 31 32 33 33 33 32 33 34 36 36 37 39 39 40 41 42 44 45 46 47 47 47 50 52 58 60 60 57 56 55 55 57 60 60
32 32 31 29 29 29 29 30 30 30 31 32 32 32 32 32 33 34 35 37 37 38 38 40 40 43 45 46 47 48 48 48 50 53 59 59 57 55 55 54 56 57 59
31 31 29 29 29 29 29 29 30 30 31 31 32 32 32 33 33 34 34 35 35 37 38 39 40 41 43 45 46 47 49 49 50 51 55 60 59 57 56 55 56 56 58
31 31 30 29 29 29 29 30 30 30 30 31 31 31 32 33 33 34 34 34 36 37 38 39 39 40 42 43 45 47 49 50 50 51 53 58 57 60 57 55 55 53 56
31 30 29 29 29 29 29 29 30 30 30 31 31 31 33 32 33 33 34 35 35 36 37 38 39 40 41 43 45 46 49 50 51 51 52 56 56 57 60 58 56 54 54
31 29 29 29 29 29 29 29 29 29 30 31 31 32 32 32 33 33 32 33 34 35 36 37 38 37 40 41 44 47 52 51 51 52 53 56 56 56 56 58 57 57 54
30 29 28 29 28 28 28 28 29 29 29 30 30 31 32 32 32 32 32 33 33 34 35 36 37 37 38 40 41 42 49 52 51 52 54 54 55 54 55 55 58 57 56
30 28 28 27 27 27 27 27 28 29 29 29 30 31 31 32 31 31 31 32 31 33 34 35 36 36 36 37 39 37 39 48 53 52 53 52 52 52 52 54 57 57 56
29 27 27 23 25 26 26 27 27 27 28 28 29 30 30 31 30 30 30 30 31 32 33 33 34 35 35 35 36 36 35 38 48 53 52 52 51 52 53 52 53 58 57
29 27 24 21 21 24 25 26 27 27 27 27 28 29 29 30 29 29 29 29 30 31 31 32 33 34 34 35 34 34 34 35 38 49 52 51 51 51 52 54 58 58 58
27 27 25 21 20 24 25 26 26 26 26 26 27 27 28 29 29 28 27 28 28 29 30 31 32 32 33 34 33 33 33 34 36 40 52 52 51 48 52 54 57 57 58
26 27 26 26 25 26 25 25 25 25 26 26 26 27 26 28 28 28 26 26 27 27 29 30 31 31 31 34 34 34 32 34 36 38 45 53 48 47 44 46 48 56 58
25 26 25 25 25 25 25 24 24 25 25 26 26 25 27 27 27 27 25 25 25 26 28 29 30 30 31 33 35 34 32 37 39 39 43 52 52 49 50 44 43 44 44
24 24 23 22 22 23 24 23 23 24 24 25 25 26 27 25 26 26 25 24 25 25 27 28 29 30 30 32 33 33 32 35 36 40 43 49 52 52 52 51 49 49 50
23 22 22 22 22 22 23 22 22 22 23 23 24 26 27 25 27 26 25 24 24 24 25 27 29 29 29 31 32 32 32 31 32 34 35 36 46 47 45 51 50 49 38
22 22 21 20 20 21 22 21 21 22 22 23 25 26 26 25 26 26 24 23 24 24 24 25 27 27 27 30 32 32 31 29 30 32 32 33 33 33 41 50 50 44 39
20 20 19 18 19 20 21 21 21 21 23 24 26 25 25 25 25 26 23 23 23 23 23 23 24 25 26 27 30 32 30 29 29 29 30 31 32 34 38 43 49 48 39
18 17 17 18 19 20 21 20 20 22 22 24 24 24 24 23 25 23 22 21 21 20 21 22 22 23 24 25 27 30 31 31 28 28 30 31 32 34 36 40 44 38 38
16 17 18 18 19 20 21 19 21 22 23 23 23 22 23 22 26 23 22 20 21 21 21 20 20 20 22 24 26 27 28 29 28 29 30 31 32 32 32 33 34 36 39
16 18 18 18 18 19 20 21 22 22 22 22 22 22 22 23 24 25 21 21 20 20 20 19 19 20 21 23 25 25 25 27 28 28 29 29 29 30 31 31 32 32 33
17 17 17 17 17 18 19 21 22 22 22 22 22 21 21 22 22 23 24 22 22 22 20 20 21 20 20 23 25 25 24 25 25 26 26 26 26 25 26 28 29 29 31
16 16 16 16 16 17 19 19 21 22 21 20 20 21 20 20 20 21 21 23 23 22 22 22 22 22 22 23 25 25 24 24 23 21 20 21 23 23 24 24 25 26 27

GFSMW_sfc_dewp_159.txt.gz
Dewpoint
34 34 34 32 31 32 32 33 34 36 36 35 35 35 36 37 38 39 41 42 42 43 43 43 43 45 44 45 44 46 49 51 54 61 62 63 64 64 64 64 64 64 64
33 33 32 31 31 30 32 32 32 34 35 34 35 35 36 37 38 39 40 42 42 42 42 43 43 44 45 45 45 45 44 49 52 56 59 57 60 62 63 63 63 63 63
32 32 30 30 30 29 31 31 32 33 34 35 34 34 34 35 35 37 38 39 41 42 42 42 42 43 44 46 46 46 45 44 49 52 56 55 55 58 61 62 62 62 62
32 32 29 28 29 30 31 31 32 32 32 34 34 34 33 32 34 36 37 38 40 41 41 41 41 43 43 45 46 45 46 46 45 50 53 59 58 57 56 60 61 62 62
32 31 29 28 28 30 30 31 31 31 32 33 34 33 33 34 35 35 37 38 38 39 40 41 41 41 42 43 45 46 46 47 46 46 49 53 59 59 58 54 59 61 61
32 32 30 29 28 30 30 30 30 30 32 33 33 34 34 34 34 35 35 35 36 37 39 39 40 40 41 42 43 45 45 46 47 46 48 50 52 55 58 57 57 57 59
33 31 28 28 28 28 29 29 30 29 30 32 33 33 34 35 34 34 33 34 35 36 38 38 39 39 40 42 43 43 44 45 46 47 48 48 52 52 56 58 56 57 59
32 30 28 29 28 28 29 30 30 29 30 31 32 32 34 32 33 33 33 33 34 35 36 37 37 39 39 39 41 42 43 45 47 48 49 48 51 54 52 56 57 56 57
31 30 29 29 29 28 29 31 30 29 29 31 31 32 33 33 34 34 34 33 34 33 36 37 37 38 39 39 40 40 43 45 46 47 49 50 51 53 54 54 59 57 53
32 30 29 29 28 28 28 31 30 29 30 31 31 31 32 32 34 34 33 34 33 34 35 35 37 37 38 38 38 39 41 42 42 45 50 51 51 53 54 55 57 56 57
31 30 30 30 28 28 28 29 30 29 29 30 31 32 33 32 32 33 32 32 33 33 33 34 35 35 36 37 37 37 37 39 39 40 42 51 51 53 54 56 56 55 57
31 29 29 28 28 27 27 27 28 28 29 29 30 32 32 31 31 32 31 32 31 32 33 33 34 34 34 35 35 34 35 35 35 37 38 42 51 53 54 55 55 55 58
30 29 31 32 29 28 27 26 26 27 28 28 29 30 30 30 29 31 31 30 30 31 32 32 32 33 34 33 34 34 33 34 34 35 37 40 47 52 54 56 56 55 54
29 28 31 31 29 28 27 26 26 27 27 27 28 29 28 29 29 30 30 30 30 30 30 31 31 32 32 32 33 33 33 34 34 36 37 38 42 53 54 55 54 54 54
27 27 29 30 28 28 28 26 26 26 27 26 27 28 28 29 29 29 30 29 28 28 28 29 30 31 31 31 33 32 33 33 34 35 37 39 41 45 50 53 55 54 54
26 27 26 26 28 26 26 24 25 26 27 26 27 26 27 26 27 28 28 28 26 26 27 28 29 32 31 31 32 32 32 33 33 34 38 40 41 43 43 43 44 52 53
26 26 27 26 24 24 24 24 24 25 25 26 26 25 26 26 27 26 26 25 25 26 26 27 29 30 31 30 30 31 31 32 33 33 35 37 41 42 51 46 42 43 43
26 28 23 21 21 22 23 23 23 24 24 24 24 26 26 26 26 25 24 24 25 26 26 26 27 29 28 28 28 31 31 32 32 33 34 35 36 41 42 52 53 52 54
28 23 21 19 19 20 21 21 21 23 23 23 24 25 25 26 26 24 24 24 24 25 25 24 25 26 26 26 28 30 31 31 30 31 33 33 33 34 34 37 52 52 53
22 21 19 18 19 19 21 20 21 21 22 23 24 25 25 24 23 23 23 23 23 22 23 23 25 25 25 26 27 29 29 30 28 31 32 32 32 32 33 35 49 50 49
19 18 17 17 19 20 20 20 20 20 22 23 24 23 23 23 23 24 21 20 21 23 22 23 23 25 25 26 26 28 28 29 28 29 30 30 31 32 34 34 41 50 48
16 17 17 18 19 20 20 19 19 21 22 22 22 22 22 22 22 22 20 19 18 19 20 22 24 25 26 24 25 26 27 28 27 27 30 30 31 31 32 33 36 39 40
16 17 17 18 19 20 20 19 21 21 21 21 20 20 21 21 23 22 21 19 19 21 21 21 21 22 24 25 24 24 24 26 25 26 28 28 29 29 29 30 32 35 43
16 17 17 17 18 19 20 20 20 20 19 18 19 19 20 20 20 22 21 20 21 21 20 19 19 21 21 23 25 25 25 23 23 24 25 26 27 27 27 27 28 32 33
16 16 16 17 18 19 20 20 20 19 17 17 17 18 18 18 19 20 22 21 22 21 21 20 21 19 18 21 23 23 22 22 21 22 21 21 21 22 24 24 25 27 29
15 15 16 16 17 18 19 20 20 19 18 16 16 17 17 17 16 17 18 18 18 17 17 18 20 21 21 22 22 21 21 21 20 18 17 17 18 18 21 22 22 24 25

GFSMW_sfc_dewp_162.txt.gz
Dewpoint
34 34 33 32 31 34 34 35 35 38 38 36 36 37 37 39 39 41 43 45 46 46 47 45 46 47 46 46 47 46 46 46 49 49 50 55 61 64 64 65 65 63 62
34 34 33 33 31 33 34 33 34 35 35 34 36 37 37 38 38 40 42 44 44 45 44 45 44 44 44 45 46 46 45 45 47 48 50 49 51 56 62 64 64 64 63
33 33 32 32 31 32 34 32 33 34 35 37 34 35 35 36 36 38 39 41 43 44 44 44 44 44 43 43 44 45 46 45 45 47 49 48 46 48 52 62 63 64 63
33 33 31 31 32 33 33 32 34 33 33 36 35 37 34 33 36 37 38 40 42 42 43 43 43 43 43 43 43 44 45 46 44 45 46 49 50 51 53 60 63 63 63
34 32 30 30 30 33 34 34 33 33 34 36 37 35 36 35 35 37 39 39 40 41 41 42 43 42 41 43 43 43 44 45 46 46 46 45 47 49 53 52 56 59 62
34 32 30 30 30 34 34 34 32 31 34 35 36 36 37 37 36 37 36 36 37 38 40 40 41 41 41 41 42 42 43 43 45 46 46 46 44 45 47 51 53 56 58
35 32 29 28 29 30 31 32 31 30 32 34 35 35 36 37 36 36 35 36 36 36 38 39 40 40 40 41 41 41 42 43 43 45 46 47 47 47 48 50 51 52 58
35 31 29 29 29 30 30 32 31 30 32 33 34 35 36 34 34 36 35 35 35 36 38 37 38 38 40 40 41 40 40 42 43 44 46 46 47 48 48 49 51 50 52
33 31 30 30 29 30 30 33 32 30 31 33 34 34 35 35 35 36 37 35 36 34 37 37 37 37 38 39 40 40 39 41 42 43 44 43 46 48 49 51 52 52 49
33 31 31 32 29 29 30 33 32 31 32 33 33 33 34 35 35 35 36 36 35 36 35 36 36 36 37 38 38 38 38 39 40 41 41 42 43 43 49 51 52 53 53
32 32 32 32 29 29 29 30 31 31 31 32 33 34 34 34 34 33 34 35 35 34 34 34 34 35 35 36 37 36 37 37 37 37 38 39 41 43 42 50 52 53 54
33 32 32 32 30 29 28 28 30 30 31 31 32 34 33 33 33 33 33 35 34 34 33 33 33 33 33 34 35 34 34 34 35 35 36 37 37 40 42 45 52 53 53
32 32 35 35 31 30 29 28 28 29 30 30 31 32 32 32 32 32 32 33 32 32 32 31 31 32 33 32 32 32 32 32 33 34 35 36 37 38 40 43 49 52 52
32 32 33 32 34 31 29 28 28 29 28 29 30 30 30 30 30 31 31 32 32 30 30 30 30 31 31 31 31 31 32 32 32 34 36 37 37 38 40 42 44 52 54
31 31 33 32 34 33 31 28 28 28 28 28 28 29 30 29 29 29 30 30 30 30 29 29 30 30 30 29 31 30 31 31 32 33 34 36 36 36 37 41 41 46 52
30 29 29 30 32 29 27 26 27 27 28 28 27 27 28 28 28 28 29 29 28 28 28 29 28 29 28 30 28 29 30 30 31 33 34 34 35 35 37 37 38 40 44
29 28 28 30 28 26 25 25 25 26 26 27 26 26 27 27 27 26 26 27 27 27 27 27 28 28 28 27 27 27 29 30 32 32 34 32 31 34 35 36 35 38 41
28 29 29 28 23 22 22 23 23 24 24 25 25 26 26 25 26 26 25 25 25 26 25 26 26 27 25 26 26 28 30 30 30 31 31 32 32 33 34 33 33 35 41
30 30 27 21 20 20 21 21 21 22 23 24 24 25 25 25 25 25 25 24 23 24 25 24 25 25 25 25 26 28 29 29 28 28 30 30 30 31 31 32 33 34 36
25 21 19 19 19 20 20 20 20 21 22 23 24 24 24 23 23 24 24 23 23 22 22 23 25 25 25 25 25 26 29 29 29 29 29 28 29 29 30 31 33 32 34
21 19 18 18 19 20 20 19 19 20 22 23 23 23 23 23 23 22 22 21 22 23 23 23 24 24 25 26 25 25 29 28 27 28 28 29 26 28 30 30 30 31 34
18 18 18 18 19 20 20 18 18 19 21 21 21 21 22 21 20 22 20 19 19 19 21 22 25 25 26 23 23 24 25 26 25 26 28 28 26 26 28 29 29 30 32
16 17 17 19 20 19 19 18 19 17 19 19 18 19 19 19 21 22 22 19 19 20 22 20 21 23 25 26 22 22 22 23 24 25 25 25 24 25 27 27 27 28 34
16 17 17 18 19 19 18 17 18 17 15 16 16 16 18 18 19 20 19 20 19 19 19 20 21 23 24 24 24 24 24 22 21 22 24 23 23 23 23 26 25 25 27
17 17 17 17 18 18 17 17 17 16 14 14 15 16 17 17 17 20 21 19 21 20 19 20 20 21 21 22 20 21 22 22 20 21 20 19 19 19 22 23 23 24 24
16 16 17 17 17 17 17 17 17 16 16 14 15 17 16 17 16 17 21 18 17 16 16 16 17 20 17 18 18 18 18 18 19 18 16 15 16 16 18 19 20 22 23

GFSMW_sfc_dewp_165.txt.gz
Dewpoint
33 35 35 34 34 37 36 36 36 39 39 36 37 37 37 39 39 40 43 45 46 47 47 45 46 46 46 47 48 47 47 47 48 47 47 48 51 55 56 59 62 64 65
32 35 35 35 35 36 35 34 34 36 36 35 37 38 38 38 39 40 43 43 44 45 44 46 45 46 45 46 46 46 45 45 47 46 46 43 43 45 52 57 59 63 65
32 34 34 35 35 35 36 33 34 34 37 39 35 36 36 36 36 39 39 41 43 44 43 44 44 44 43 43 44 44 45 44 46 47 46 44 41 46 47 53 57 61 63
33 34 34 34 35 36 36 35 34 34 35 39 37 39 35 34 37 37 39 40 41 41 42 43 43 43 43 43 43 43 44 44 44 45 45 46 47 45 44 47 53 58 62
33 33 33 32 32 35 37 37 34 34 36 38 39 37 37 37 37 38 40 40 40 41 40 42 43 42 41 41 41 42 43 43 43 43 44 45 46 46 45 44 44 51 57
34 34 33 32 32 37 37 37 33 33 36 37 38 38 39 38 37 37 38 37 38 38 40 40 41 42 41 41 42 42 42 42 42 44 44 44 44 44 44 45 45 47 52
36 35 32 30 30 33 35 33 32 32 34 35 36 37 38 38 37 37 36 37 37 37 39 40 40 39 39 40 41 41 41 41 41 42 43 44 45 45 46 46 45 46 47
37 35 32 30 31 32 33 34 32 30 32 34 35 36 37 35 35 36 37 36 36 37 39 38 38 38 38 38 40 40 40 39 41 40 42 42 43 45 44 45 46 44 46
36 35 32 32 31 32 34 35 31 30 32 34 35 35 36 37 36 37 37 36 37 35 37 38 37 37 37 37 38 39 39 40 40 40 41 41 42 44 44 44 47 46 43
35 34 32 33 31 31 33 35 32 31 32 34 34 34 35 36 36 36 36 36 37 36 36 36 36 35 35 37 38 38 39 38 39 37 39 39 38 39 41 43 44 45 46
35 34 32 33 31 31 31 32 32 30 32 33 34 35 35 35 35 35 35 35 35 35 35 34 34 33 33 34 36 35 36 36 36 36 36 37 38 38 38 41 42 44 43
35 34 33 33 31 30 28 29 31 31 31 31 33 35 34 34 34 34 33 34 34 34 33 33 32 32 32 33 34 34 35 34 34 33 34 34 32 36 37 37 38 40 42
34 34 37 36 32 30 29 28 29 29 30 30 32 33 33 32 32 32 32 32 32 32 32 31 31 30 31 31 32 33 32 31 32 33 33 33 33 35 36 37 38 38 39
34 34 36 34 36 31 30 28 29 29 29 29 30 31 31 32 31 32 31 32 31 31 31 31 30 30 30 30 30 29 30 30 29 32 33 34 35 35 36 36 36 35 38
33 33 34 33 34 35 31 28 29 29 29 28 29 30 31 30 30 30 30 30 30 30 29 29 29 29 30 27 28 28 29 29 29 31 32 34 34 35 35 35 36 35 37
32 32 31 31 33 31 28 27 28 28 29 28 28 28 29 28 29 29 28 28 28 27 28 28 28 30 26 30 27 27 28 28 29 30 31 32 34 34 34 34 34 34 33
32 31 30 31 30 28 26 26 25 27 26 28 26 26 27 27 27 27 27 27 26 26 26 27 27 28 28 28 27 26 27 28 29 29 30 29 28 33 32 32 31 30 31
31 30 30 31 27 24 23 25 24 25 25 26 25 26 26 25 25 25 26 25 25 26 25 26 26 27 25 27 26 26 26 28 28 28 28 29 30 30 32 28 28 28 30
30 31 31 26 22 22 22 21 22 23 24 25 24 24 25 24 25 24 25 24 23 24 25 23 24 25 25 25 25 25 27 26 26 25 27 28 28 27 27 27 27 27 29
30 28 24 21 21 21 21 21 21 22 23 23 24 23 24 23 23 23 23 23 22 21 21 22 25 25 25 24 24 24 26 26 26 25 26 25 25 25 26 26 27 27 27
25 23 21 20 21 21 21 20 19 19 21 22 22 22 22 21 21 22 21 20 20 22 22 22 23 24 25 25 23 23 25 26 25 25 24 25 24 24 24 26 27 27 27
20 19 19 19 20 20 20 17 16 17 19 19 19 19 20 19 17 20 19 18 17 18 19 20 24 25 26 22 22 22 22 22 23 23 24 25 25 24 23 24 25 26 26
18 19 20 20 20 18 18 17 17 15 16 16 16 17 17 17 19 21 19 18 17 18 21 20 20 22 23 24 20 21 20 21 22 21 22 22 22 22 23 22 23 25 25
18 19 19 18 19 18 17 16 16 15 13 14 14 15 17 17 18 20 19 19 19 18 18 18 19 20 22 21 22 23 23 20 20 19 21 21 21 19 20 22 22 24 24
18 18 18 18 17 16 15 15 14 15 13 14 15 16 17 17 17 20 23 20 22 19 18 18 19 19 19 21 19 18 21 21 19 18 18 17 17 16 17 18 19 21 22
18 18 18 17 16 15 15 15 15 15 15 14 16 17 17 18 17 17 21 19 18 17 16 15 17 20 18 17 17 17 17 16 16 18 16 14 14 14 15 15 16 18 19

GFSMW_sfc_dewp_168.txt.gz
Dewpoint
33 36 38 38 38 43 42 42 44 44 43 43 43 43 43 45 46 45 46 48 48 48 48 46 46 47 45 45 46 45 44 44 45 46 45 46 46 47 49 52 52 56 60
32 36 37 38 40 41 41 41 40 41 41 40 42 43 43 43 43 46 46 48 47 47 43 46 45 45 43 43 43 42 42 43 45 44 44 43 43 46 45 48 51 55 58
32 36 36 38 40 40 41 38 39 40 42 42 40 41 42 43 43 43 44 44 45 45 45 45 45 45 42 41 41 41 41 42 43 44 45 42 41 43 45 44 47 48 52
33 35 35 37 40 41 40 39 39 38 40 42 42 42 39 38 40 42 44 44 45 44 44 44 44 44 43 40 39 40 41 42 41 42 42 44 45 43 41 44 44 46 48
35 35 35 35 36 39 41 41 39 39 41 42 42 41 41 41 41 41 43 43 43 44 43 44 43 43 40 39 39 39 41 40 41 40 42 43 43 44 43 41 42 43 45
36 36 36 35 36 42 42 42 38 37 40 40 41 41 41 40 39 40 41 40 41 41 42 41 42 41 39 38 37 39 39 40 41 41 41 41 42 42 42 42 42 42 43
38 36 34 32 35 38 40 39 37 35 38 39 40 40 40 40 38 38 38 39 39 39 40 40 40 39 37 37 37 37 39 39 39 39 40 41 41 42 42 43 42 42 43
38 35 34 33 34 36 37 37 35 34 36 38 39 39 39 38 38 38 38 38 38 39 40 39 39 38 36 35 37 37 37 38 38 38 39 39 40 41 41 41 41 39 40
38 36 35 35 34 35 38 38 35 33 35 37 39 39 39 39 38 38 38 37 38 35 38 38 37 34 35 35 34 35 36 36 37 37 36 38 38 38 38 39 41 40 37
38 37 35 36 34 35 37 39 36 34 35 37 37 37 37 37 37 38 37 37 36 36 36 35 34 33 33 32 34 33 35 34 34 34 35 34 34 35 36 37 36 39 39
37 37 35 35 34 34 35 37 35 34 35 36 37 38 37 37 37 36 35 35 35 34 33 32 32 32 31 31 31 33 32 34 33 32 32 32 32 33 32 34 34 34 36
37 36 35 35 33 33 32 33 35 34 35 34 36 37 36 35 35 34 34 34 32 32 33 32 31 30 30 30 31 33 31 30 29 30 30 30 30 31 31 32 33 34 36
36 35 37 37 34 33 31 30 32 32 32 32 34 35 35 34 34 33 32 31 31 30 30 31 31 30 32 29 32 29 28 28 28 28 29 29 31 31 33 35 35 36 36
35 37 36 35 36 34 32 30 31 31 31 31 32 33 33 33 32 32 31 31 31 30 29 31 30 31 30 30 29 27 27 27 26 29 30 30 31 32 33 33 33 34 35
35 34 34 34 35 36 33 31 31 30 30 29 30 32 32 30 30 30 31 30 29 29 28 28 29 30 29 29 29 27 27 26 27 28 28 30 30 31 32 32 34 34 34
35 34 32 31 32 33 31 29 30 30 30 29 28 28 28 28 29 29 29 29 26 28 28 28 29 30 26 31 27 26 25 25 26 27 27 27 28 29 31 32 31 29 28
35 32 30 31 32 30 28 28 27 29 28 29 27 26 26 26 28 27 26 26 27 27 26 28 27 27 28 28 26 25 23 24 26 25 25 25 25 28 28 27 25 25 27
34 31 30 31 30 27 25 27 25 26 27 26 25 26 26 25 25 25 24 25 25 26 25 25 26 26 26 25 25 24 23 23 24 23 24 25 25 26 25 25 24 24 25
33 32 31 29 26 24 23 23 23 24 25 24 24 23 24 24 25 25 25 23 23 23 23 23 24 25 25 24 23 24 23 22 22 21 23 23 24 25 26 25 23 22 23
31 30 28 25 23 22 22 22 22 22 23 23 23 23 23 22 21 23 23 22 20 19 20 21 23 23 23 23 22 22 23 21 21 20 21 21 22 24 24 23 22 21 20
28 27 24 22 21 23 22 21 20 20 21 21 22 22 21 20 22 21 19 18 18 20 20 20 20 21 21 20 20 20 22 21 20 19 19 20 23 24 24 24 22 22 22
24 21 21 20 21 21 20 16 16 17 18 18 18 19 20 18 18 20 18 17 16 17 18 17 18 19 21 19 19 19 19 21 19 17 18 20 19 21 20 20 22 22 21
19 20 20 20 20 19 18 16 15 14 16 16 16 18 17 18 20 21 19 18 17 17 17 16 15 16 19 19 19 20 19 19 18 17 18 18 17 17 18 19 21 19 19
20 20 19 18 18 17 15 14 15 14 13 14 16 17 18 18 20 22 21 20 18 17 17 15 14 15 17 18 20 19 19 20 18 15 16 15 16 13 14 15 16 17 17
19 19 19 19 16 15 14 13 14 13 14 16 16 18 19 18 19 23 23 22 20 18 18 16 16 15 16 18 18 17 17 17 16 14 13 13 12 11 11 12 12 14 15
19 20 19 17 14 14 14 14 15 16 17 17 18 20 19 20 18 19 22 20 19 17 19 17 16 15 16 16 17 17 16 16 15 12 11 11 11 10 10 10 11 12 13